Wetterdaten: Dienstag, 19.09.2023
Datum Zeit Temp. Aussen Temp. o. S. Temp +5cm Feuchte Auss Luftdruck Regen Sonnenschein Regendauer Solar Windben Empfang
19.09.2023 00:00 16,7 C 16,1 C 11,7 C 93 % 1007,8 hPa 0,0 l/m 0 min 0 min 0 W/m 22,5 km/h (4 Bft) 95,74 %
19.09.2023 00:02 16,7 C 16,1 C 11,1 C 93 % 1007,9 hPa 0,0 l/m 0 min 0 min 0 W/m 12,9 km/h (3 Bft) 11,11 %
19.09.2023 00:04 16,7 C 16,1 C 11,1 C 93 % 1007,9 hPa 0,0 l/m 0 min 0 min 0 W/m 19,3 km/h (3 Bft) 86,96 %
19.09.2023 00:10 16,7 C 16,1 C 11,7 C 93 % 1008,0 hPa 0,0 l/m 0 min 0 min 0 W/m 22,5 km/h (4 Bft) 96,38 %
19.09.2023 00:12 16,7 C 16,1 C 11,1 C 93 % 1008,0 hPa 0,0 l/m 0 min 0 min 0 W/m 19,3 km/h (3 Bft) 95,74 %
19.09.2023 00:16 16,8 C 16,1 C 11,7 C 92 % 1008,1 hPa 0,0 l/m 0 min 0 min 0 W/m 16,1 km/h (3 Bft) 95,74 %
19.09.2023 00:18 16,8 C 16,1 C 11,1 C 92 % 1008,1 hPa 0,0 l/m 0 min 0 min 0 W/m 16,1 km/h (3 Bft) 95,92 %
19.09.2023 00:20 16,8 C 16,1 C 11,7 C 92 % 1008,1 hPa 0,0 l/m 0 min 0 min 0 W/m 12,9 km/h (3 Bft) 95,74 %
19.09.2023 00:22 16,8 C 15,6 C 11,7 C 92 % 1008,1 hPa 0,0 l/m 0 min 0 min 0 W/m 12,9 km/h (3 Bft) 97,87 %
19.09.2023 00:24 16,8 C 15,6 C 11,7 C 92 % 1008,1 hPa 0,0 l/m 0 min 0 min 0 W/m 6,4 km/h (2 Bft) 97,83 %
19.09.2023 00:26 16,8 C 15,6 C 11,7 C 92 % 1008,1 hPa 0,0 l/m 0 min 0 min 0 W/m 6,4 km/h (2 Bft) 97,87 %
19.09.2023 00:28 16,7 C 15,6 C 11,7 C 92 % 1008,1 hPa 0,0 l/m 0 min 0 min 0 W/m 9,7 km/h (2 Bft) 95,74 %
19.09.2023 00:30 16,7 C 15,6 C 11,7 C 93 % 1008,1 hPa 0,0 l/m 0 min 0 min 0 W/m 6,4 km/h (2 Bft) 95,74 %
19.09.2023 00:32 16,7 C 15,6 C 11,7 C 92 % 1008,2 hPa 0,0 l/m 0 min 0 min 0 W/m 19,3 km/h (3 Bft) 93,62 %
19.09.2023 00:34 16,6 C 15,6 C 11,7 C 92 % 1008,1 hPa 0,0 l/m 0 min 0 min 0 W/m 25,7 km/h (4 Bft) 95,74 %
19.09.2023 00:36 16,6 C 15,6 C 11,7 C 92 % 1008,2 hPa 0,0 l/m 0 min 0 min 0 W/m 22,5 km/h (4 Bft) 94,29 %
19.09.2023 00:38 16,6 C 15,6 C 11,7 C 92 % 1008,2 hPa 0,0 l/m 0 min 0 min 0 W/m 12,9 km/h (3 Bft) 96,61 %
19.09.2023 00:40 16,6 C 15,6 C 11,7 C 92 % 1008,2 hPa 0,0 l/m 0 min 0 min 0 W/m 12,9 km/h (3 Bft) 94,29 %
19.09.2023 00:42 16,6 C 15,6 C 11,7 C 92 % 1008,2 hPa 0,0 l/m 0 min 0 min 0 W/m 9,7 km/h (2 Bft) 95,74 %
19.09.2023 00:44 16,5 C 15,6 C 11,7 C 92 % 1008,2 hPa 0,0 l/m 0 min 0 min 0 W/m 19,3 km/h (3 Bft) 95,74 %
19.09.2023 00:46 16,4 C 15,6 C 11,7 C 91 % 1008,2 hPa 0,0 l/m 0 min 0 min 0 W/m 16,1 km/h (3 Bft) 93,62 %
19.09.2023 00:48 16,4 C 15,6 C 11,7 C 91 % 1008,2 hPa 0,0 l/m 0 min 0 min 0 W/m 12,9 km/h (3 Bft) 97,87 %
19.09.2023 00:50 16,4 C 15,6 C 11,7 C 91 % 1008,2 hPa 0,0 l/m 0 min 0 min 0 W/m 12,9 km/h (3 Bft) 93,48 %
19.09.2023 00:52 16,4 C 15,6 C 11,7 C 91 % 1008,2 hPa 0,0 l/m 0 min 0 min 0 W/m 12,9 km/h (3 Bft) 95,74 %
19.09.2023 00:54 16,3 C 15,6 C 11,7 C 90 % 1008,3 hPa 0,0 l/m 0 min 0 min 0 W/m 6,4 km/h (2 Bft) 97,87 %
19.09.2023 00:56 16,3 C 15,6 C 11,7 C 90 % 1008,3 hPa 0,0 l/m 0 min 0 min 0 W/m 6,4 km/h (2 Bft) 97,96 %
19.09.2023 00:58 16,3 C 15,6 C 11,7 C 90 % 1008,3 hPa 0,0 l/m 0 min 0 min 0 W/m 3,2 km/h (1 Bft) 100,00 %
19.09.2023 01:00 16,3 C 15,6 C 11,7 C 90 % 1008,4 hPa 0,0 l/m 0 min 0 min 0 W/m 16,1 km/h (3 Bft) 98,18 %
19.09.2023 01:02 16,3 C 15,6 C 11,7 C 90 % 1008,4 hPa 0,0 l/m 0 min 0 min 0 W/m 19,3 km/h (3 Bft) 100,00 %
19.09.2023 01:04 16,3 C 15,6 C 11,7 C 89 % 1008,4 hPa 0,0 l/m 0 min 0 min 0 W/m 16,1 km/h (3 Bft) 100,00 %
19.09.2023 01:06 16,2 C 15,6 C 11,7 C 89 % 1008,5 hPa 0,0 l/m 0 min 0 min 0 W/m 16,1 km/h (3 Bft) 100,00 %
19.09.2023 01:08 16,2 C 15,6 C 11,7 C 89 % 1008,6 hPa 0,0 l/m 0 min 0 min 0 W/m 16,1 km/h (3 Bft) 100,00 %
19.09.2023 01:10 16,2 C 15,6 C 11,7 C 89 % 1008,6 hPa 0,0 l/m 0 min 0 min 0 W/m 12,9 km/h (3 Bft) 100,00 %
19.09.2023 01:12 16,2 C 15,6 C 11,7 C 89 % 1008,6 hPa 0,0 l/m 0 min 0 min 0 W/m 16,1 km/h (3 Bft) 100,00 %
19.09.2023 01:14 16,2 C 15,6 C 11,7 C 89 % 1008,7 hPa 0,0 l/m 0 min 0 min 0 W/m 12,9 km/h (3 Bft) 100,00 %
19.09.2023 01:16 16,1 C 15,6 C 11,7 C 88 % 1008,7 hPa 0,0 l/m 0 min 0 min 0 W/m 12,9 km/h (3 Bft) 97,87 %
19.09.2023 01:18 16,1 C 15,6 C 11,7 C 88 % 1008,7 hPa 0,0 l/m 0 min 0 min 0 W/m 6,4 km/h (2 Bft) 97,87 %
19.09.2023 01:20 16,1 C 15,0 C 11,7 C 88 % 1008,7 hPa 0,0 l/m 0 min 0 min 0 W/m 12,9 km/h (3 Bft) 100,00 %
19.09.2023 01:22 16,1 C 15,0 C 11,1 C 88 % 1008,7 hPa 0,0 l/m 0 min 0 min 0 W/m 12,9 km/h (3 Bft) 100,00 %
19.09.2023 01:24 16,1 C 15,0 C 11,1 C 88 % 1008,8 hPa 0,0 l/m 0 min 0 min 0 W/m 9,7 km/h (2 Bft) 100,00 %
19.09.2023 01:26 16,1 C 15,0 C 11,1 C 88 % 1008,8 hPa 0,0 l/m 0 min 0 min 0 W/m 6,4 km/h (2 Bft) 100,00 %
19.09.2023 01:28 16,0 C 15,0 C 11,1 C 88 % 1008,9 hPa 0,0 l/m 0 min 0 min 0 W/m 12,9 km/h (3 Bft) 97,87 %
19.09.2023 01:30 16,0 C 15,0 C 11,1 C 88 % 1008,8 hPa 0,0 l/m 0 min 0 min 0 W/m 16,1 km/h (3 Bft) 100,00 %
19.09.2023 01:32 16,0 C 15,0 C 11,1 C 88 % 1008,8 hPa 0,0 l/m 0 min 0 min 0 W/m 12,9 km/h (3 Bft) 95,74 %
19.09.2023 01:34 15,9 C 15,0 C 11,7 C 88 % 1008,9 hPa 0,0 l/m 0 min 0 min 0 W/m 12,9 km/h (3 Bft) 97,87 %
19.09.2023 01:36 15,9 C 15,0 C 11,7 C 88 % 1008,9 hPa 0,0 l/m 0 min 0 min 0 W/m 9,7 km/h (2 Bft) 97,87 %
19.09.2023 01:38 15,9 C 15,0 C 11,7 C 88 % 1008,9 hPa 0,0 l/m 0 min 0 min 0 W/m 9,7 km/h (2 Bft) 97,87 %
19.09.2023 01:40 15,9 C 15,0 C 11,7 C 88 % 1008,9 hPa 0,0 l/m 0 min 0 min 0 W/m 12,9 km/h (3 Bft) 97,87 %
19.09.2023 01:42 15,9 C 15,0 C 11,7 C 89 % 1009,0 hPa 0,0 l/m 0 min 0 min 0 W/m 19,3 km/h (3 Bft) 97,87 %
19.09.2023 01:44 15,9 C 15,0 C 11,7 C 89 % 1008,9 hPa 0,0 l/m 0 min 0 min 0 W/m 25,7 km/h (4 Bft) 97,87 %
19.09.2023 01:46 15,8 C 15,0 C 11,7 C 89 % 1009,1 hPa 0,0 l/m 0 min 0 min 0 W/m 19,3 km/h (3 Bft) 97,83 %
19.09.2023 01:48 15,8 C 15,0 C 11,7 C 89 % 1009,1 hPa 0,0 l/m 0 min 0 min 0 W/m 25,7 km/h (4 Bft) 97,87 %
19.09.2023 01:50 15,8 C 15,0 C 11,7 C 89 % 1009,1 hPa 0,0 l/m 0 min 0 min 0 W/m 16,1 km/h (3 Bft) 95,74 %
19.09.2023 01:52 15,8 C 15,0 C 11,7 C 89 % 1009,1 hPa 0,0 l/m 0 min 0 min 0 W/m 16,1 km/h (3 Bft) 97,87 %
19.09.2023 01:54 15,8 C 15,0 C 11,7 C 89 % 1009,0 hPa 0,0 l/m 0 min 0 min 0 W/m 12,9 km/h (3 Bft) 97,87 %
19.09.2023 01:56 15,8 C 15,0 C 11,7 C 89 % 1009,0 hPa 0,0 l/m 0 min 0 min 0 W/m 19,3 km/h (3 Bft) 97,87 %
19.09.2023 01:58 15,8 C 15,0 C 11,7 C 89 % 1009,1 hPa 0,0 l/m 0 min 0 min 0 W/m 16,1 km/h (3 Bft) 97,87 %
19.09.2023 02:00 15,7 C 15,0 C 11,7 C 89 % 1009,1 hPa 0,0 l/m 0 min 0 min 0 W/m 16,1 km/h (3 Bft) 95,74 %
19.09.2023 02:02 15,7 C 15,0 C 11,7 C 89 % 1009,2 hPa 0,0 l/m 0 min 0 min 0 W/m 22,5 km/h (4 Bft) 95,74 %
19.09.2023 02:04 15,7 C 15,0 C 11,7 C 89 % 1009,1 hPa 0,0 l/m 0 min 0 min 0 W/m 16,1 km/h (3 Bft) 95,92 %
19.09.2023 02:06 15,7 C 15,0 C 11,7 C 89 % 1009,1 hPa 0,0 l/m 0 min 0 min 0 W/m 12,9 km/h (3 Bft) 98,33 %
19.09.2023 02:08 15,7 C 15,0 C 11,7 C 89 % 1009,1 hPa 0,0 l/m 0 min 0 min 0 W/m 12,9 km/h (3 Bft) 97,14 %
19.09.2023 02:10 15,6 C 15,0 C 11,7 C 89 % 1009,2 hPa 0,0 l/m 0 min 0 min 0 W/m 16,1 km/h (3 Bft) 97,87 %
19.09.2023 02:14 15,6 C 15,0 C 11,7 C 88 % 1009,2 hPa 0,0 l/m 0 min 0 min 0 W/m 12,9 km/h (3 Bft) 97,56 %
19.09.2023 02:16 15,6 C 15,0 C 11,7 C 88 % 1009,2 hPa 0,0 l/m 0 min 0 min 0 W/m 12,9 km/h (3 Bft) 97,87 %
19.09.2023 02:18 15,6 C 14,4 C 11,7 C 88 % 1009,2 hPa 0,0 l/m 0 min 0 min 0 W/m 19,3 km/h (3 Bft) 100,00 %
19.09.2023 02:20 15,6 C 14,4 C 11,7 C 88 % 1009,3 hPa 0,0 l/m 0 min 0 min 0 W/m 19,3 km/h (3 Bft) 97,87 %
19.09.2023 02:22 15,6 C 14,4 C 11,7 C 88 % 1009,2 hPa 0,0 l/m 0 min 0 min 0 W/m 6,4 km/h (2 Bft) 95,74 %
19.09.2023 02:24 15,6 C 14,4 C 11,7 C 89 % 1009,2 hPa 0,0 l/m 0 min 0 min 0 W/m 12,9 km/h (3 Bft) 97,87 %
19.09.2023 02:26 15,6 C 14,4 C 11,7 C 89 % 1009,3 hPa 0,0 l/m 0 min 0 min 0 W/m 6,4 km/h (2 Bft) 97,87 %
19.09.2023 02:28 15,5 C 14,4 C 11,7 C 89 % 1009,2 hPa 0,0 l/m 0 min 0 min 0 W/m 19,3 km/h (3 Bft) 97,87 %
19.09.2023 02:30 15,5 C 14,4 C 11,7 C 89 % 1009,3 hPa 0,0 l/m 0 min 0 min 0 W/m 16,1 km/h (3 Bft) 97,87 %
19.09.2023 02:32 15,5 C 14,4 C 11,7 C 89 % 1009,3 hPa 0,0 l/m 0 min 0 min 0 W/m 16,1 km/h (3 Bft) 97,83 %
19.09.2023 02:34 15,4 C 14,4 C 11,7 C 89 % 1009,3 hPa 0,0 l/m 0 min 0 min 0 W/m 9,7 km/h (2 Bft) 97,87 %
19.09.2023 02:36 15,4 C 14,4 C 11,7 C 89 % 1009,4 hPa 0,0 l/m 0 min 0 min 0 W/m 19,3 km/h (3 Bft) 97,87 %
19.09.2023 02:38 15,4 C 14,4 C 11,7 C 89 % 1009,4 hPa 0,0 l/m 0 min 0 min 0 W/m 16,1 km/h (3 Bft) 97,87 %
19.09.2023 02:40 15,4 C 14,4 C 11,7 C 89 % 1009,3 hPa 0,0 l/m 0 min 0 min 0 W/m 25,7 km/h (4 Bft) 97,87 %
19.09.2023 02:42 15,4 C 14,4 C 11,7 C 89 % 1009,4 hPa 0,0 l/m 0 min 0 min 0 W/m 19,3 km/h (3 Bft) 93,62 %
19.09.2023 02:44 15,4 C 14,4 C 11,7 C 89 % 1009,3 hPa 0,0 l/m 0 min 0 min 0 W/m 19,3 km/h (3 Bft) 95,74 %
19.09.2023 02:46 15,4 C 14,4 C 11,7 C 89 % 1009,4 hPa 0,0 l/m 0 min 0 min 0 W/m 19,3 km/h (3 Bft) 97,92 %
19.09.2023 02:48 15,4 C 14,4 C 11,7 C 89 % 1009,4 hPa 0,0 l/m 0 min 0 min 0 W/m 22,5 km/h (4 Bft) 97,87 %
19.09.2023 02:50 15,4 C 14,4 C 11,7 C 89 % 1009,4 hPa 0,0 l/m 0 min 0 min 0 W/m 16,1 km/h (3 Bft) 97,87 %
19.09.2023 02:52 15,4 C 14,4 C 11,7 C 89 % 1009,4 hPa 0,0 l/m 0 min 0 min 0 W/m 9,7 km/h (2 Bft) 100,00 %
19.09.2023 02:54 15,4 C 14,4 C 11,7 C 89 % 1009,5 hPa 0,0 l/m 0 min 0 min 0 W/m 12,9 km/h (3 Bft) 97,87 %
19.09.2023 02:56 15,4 C 14,4 C 11,7 C 89 % 1009,5 hPa 0,0 l/m 0 min 0 min 0 W/m 12,9 km/h (3 Bft) 100,00 %
19.09.2023 02:58 15,4 C 14,4 C 11,7 C 89 % 1009,5 hPa 0,0 l/m 0 min 0 min 0 W/m 9,7 km/h (2 Bft) 97,87 %
19.09.2023 03:00 15,4 C 14,4 C 11,1 C 89 % 1009,5 hPa 0,0 l/m 0 min 0 min 0 W/m 16,1 km/h (3 Bft) 95,74 %
19.09.2023 03:02 15,3 C 14,4 C 11,1 C 89 % 1009,5 hPa 0,0 l/m 0 min 0 min 0 W/m 16,1 km/h (3 Bft) 97,87 %
19.09.2023 03:04 15,3 C 14,4 C 11,1 C 88 % 1009,5 hPa 0,0 l/m 0 min 0 min 0 W/m 12,9 km/h (3 Bft) 98,04 %
19.09.2023 03:06 15,3 C 14,4 C 11,1 C 89 % 1009,5 hPa 0,0 l/m 0 min 0 min 0 W/m 16,1 km/h (3 Bft) 97,87 %
19.09.2023 03:08 15,3 C 14,4 C 11,1 C 88 % 1009,5 hPa 0,0 l/m 0 min 0 min 0 W/m 12,9 km/h (3 Bft) 97,87 %
19.09.2023 03:10 15,3 C 14,4 C 11,1 C 89 % 1009,6 hPa 0,0 l/m 0 min 0 min 0 W/m 19,3 km/h (3 Bft) 97,87 %
19.09.2023 03:12 15,3 C 14,4 C 11,1 C 89 % 1009,6 hPa 0,0 l/m 0 min 0 min 0 W/m 16,1 km/h (3 Bft) 95,74 %
19.09.2023 03:14 15,3 C 14,4 C 11,1 C 89 % 1009,7 hPa 0,0 l/m 0 min 0 min 0 W/m 16,1 km/h (3 Bft) 97,87 %
19.09.2023 03:16 15,3 C 14,4 C 11,1 C 89 % 1009,7 hPa 0,0 l/m 0 min 0 min 0 W/m 12,9 km/h (3 Bft) 95,74 %
19.09.2023 03:18 15,3 C 14,4 C 11,1 C 89 % 1009,7 hPa 0,0 l/m 0 min 0 min 0 W/m 12,9 km/h (3 Bft) 97,87 %
19.09.2023 03:20 15,2 C 14,4 C 11,1 C 89 % 1009,8 hPa 0,0 l/m 0 min 0 min 0 W/m 12,9 km/h (3 Bft) 97,87 %
19.09.2023 03:22 15,2 C 14,4 C 11,1 C 89 % 1009,7 hPa 0,0 l/m 0 min 0 min 0 W/m 12,9 km/h (3 Bft) 97,83 %
19.09.2023 03:24 15,2 C 14,4 C 11,1 C 89 % 1009,8 hPa 0,0 l/m 0 min 0 min 0 W/m 12,9 km/h (3 Bft) 97,87 %
19.09.2023 03:26 15,2 C 14,4 C 11,1 C 89 % 1009,8 hPa 0,0 l/m 0 min 0 min 0 W/m 19,3 km/h (3 Bft) 97,87 %
19.09.2023 03:28 15,2 C 14,4 C 11,1 C 89 % 1009,8 hPa 0,0 l/m 0 min 0 min 0 W/m 22,5 km/h (4 Bft) 95,74 %
19.09.2023 03:30 15,2 C 14,4 C 11,1 C 89 % 1009,8 hPa 0,0 l/m 0 min 0 min 0 W/m 12,9 km/h (3 Bft) 97,87 %
19.09.2023 03:32 15,2 C 14,4 C 11,1 C 89 % 1009,9 hPa 0,0 l/m 0 min 0 min 0 W/m 12,9 km/h (3 Bft) 97,87 %
19.09.2023 03:34 15,2 C 14,4 C 11,1 C 89 % 1009,9 hPa 0,0 l/m 0 min 0 min 0 W/m 16,1 km/h (3 Bft) 97,87 %
19.09.2023 03:36 15,2 C 14,4 C 11,1 C 89 % 1009,9 hPa 0,0 l/m 0 min 0 min 0 W/m 9,7 km/h (2 Bft) 97,87 %
19.09.2023 03:38 15,2 C 14,4 C 11,1 C 89 % 1010,0 hPa 0,0 l/m 0 min 0 min 0 W/m 12,9 km/h (3 Bft) 97,87 %
19.09.2023 03:40 15,1 C 14,4 C 11,1 C 89 % 1009,9 hPa 0,0 l/m 0 min 0 min 0 W/m 12,9 km/h (3 Bft) 97,87 %
19.09.2023 03:42 15,1 C 14,4 C 11,1 C 89 % 1010,0 hPa 0,0 l/m 0 min 0 min 0 W/m 9,7 km/h (2 Bft) 97,87 %
19.09.2023 03:44 15,1 C 14,4 C 11,1 C 89 % 1010,0 hPa 0,0 l/m 0 min 0 min 0 W/m 9,7 km/h (2 Bft) 97,87 %
19.09.2023 03:46 15,1 C 14,4 C 11,1 C 89 % 1010,0 hPa 0,0 l/m 0 min 0 min 0 W/m 12,9 km/h (3 Bft) 95,74 %
19.09.2023 03:48 15,1 C 14,4 C 11,1 C 89 % 1010,0 hPa 0,0 l/m 0 min 0 min 0 W/m 12,9 km/h (3 Bft) 97,83 %
19.09.2023 03:50 15,1 C 14,4 C 11,1 C 89 % 1010,0 hPa 0,0 l/m 0 min 0 min 0 W/m 6,4 km/h (2 Bft) 94,55 %
19.09.2023 03:52 15,1 C 14,4 C 11,1 C 89 % 1010,1 hPa 0,0 l/m 0 min 0 min 0 W/m 16,1 km/h (3 Bft) 94,74 %
19.09.2023 03:54 15,1 C 14,4 C 11,1 C 89 % 1010,1 hPa 0,0 l/m 0 min 0 min 0 W/m 12,9 km/h (3 Bft) 97,87 %
19.09.2023 03:56 15,1 C 14,4 C 11,1 C 89 % 1010,0 hPa 0,0 l/m 0 min 0 min 0 W/m 22,5 km/h (4 Bft) 100,00 %
19.09.2023 03:58 15,1 C 14,4 C 11,1 C 89 % 1010,0 hPa 0,0 l/m 0 min 0 min 0 W/m 12,9 km/h (3 Bft) 100,00 %
19.09.2023 04:00 15,1 C 14,4 C 11,1 C 89 % 1010,1 hPa 0,0 l/m 0 min 0 min 0 W/m 12,9 km/h (3 Bft) 97,87 %
19.09.2023 04:02 15,1 C 14,4 C 11,1 C 89 % 1010,0 hPa 0,0 l/m 0 min 0 min 0 W/m 16,1 km/h (3 Bft) 97,87 %
19.09.2023 04:04 15,1 C 14,4 C 11,1 C 89 % 1010,1 hPa 0,0 l/m 0 min 0 min 0 W/m 19,3 km/h (3 Bft) 97,87 %
19.09.2023 04:06 15,1 C 14,4 C 11,1 C 89 % 1010,0 hPa 0,0 l/m 0 min 0 min 0 W/m 12,9 km/h (3 Bft) 97,87 %
19.09.2023 04:08 15,1 C 14,4 C 11,1 C 89 % 1010,0 hPa 0,0 l/m 0 min 0 min 0 W/m 16,1 km/h (3 Bft) 97,87 %
19.09.2023 04:10 15,1 C 14,4 C 11,1 C 89 % 1010,1 hPa 0,0 l/m 0 min 0 min 0 W/m 19,3 km/h (3 Bft) 95,74 %
19.09.2023 04:12 15,1 C 14,4 C 11,1 C 89 % 1010,1 hPa 0,0 l/m 0 min 0 min 0 W/m 12,9 km/h (3 Bft) 93,62 %
19.09.2023 04:14 15,0 C 14,4 C 11,1 C 89 % 1010,2 hPa 0,0 l/m 0 min 0 min 0 W/m 19,3 km/h (3 Bft) 95,74 %
19.09.2023 04:16 15,0 C 14,4 C 11,1 C 89 % 1010,1 hPa 0,0 l/m 0 min 0 min 0 W/m 12,9 km/h (3 Bft) 95,65 %
19.09.2023 04:18 15,0 C 14,4 C 11,1 C 89 % 1010,1 hPa 0,0 l/m 0 min 0 min 0 W/m 19,3 km/h (3 Bft) 91,49 %
19.09.2023 04:20 15,0 C 14,4 C 11,1 C 89 % 1010,2 hPa 0,0 l/m 0 min 0 min 0 W/m 12,9 km/h (3 Bft) 93,62 %
19.09.2023 04:22 15,0 C 14,4 C 11,1 C 88 % 1010,2 hPa 0,0 l/m 0 min 0 min 0 W/m 22,5 km/h (4 Bft) 95,74 %
19.09.2023 04:24 14,9 C 14,4 C 11,1 C 88 % 1010,2 hPa 0,0 l/m 0 min 0 min 0 W/m 12,9 km/h (3 Bft) 95,74 %
19.09.2023 04:26 14,9 C 14,4 C 11,1 C 88 % 1010,2 hPa 0,0 l/m 0 min 0 min 0 W/m 16,1 km/h (3 Bft) 95,74 %
19.09.2023 04:28 14,9 C 14,4 C 11,1 C 88 % 1010,2 hPa 0,0 l/m 0 min 0 min 0 W/m 12,9 km/h (3 Bft) 97,87 %
19.09.2023 04:30 14,9 C 14,4 C 11,1 C 87 % 1010,2 hPa 0,0 l/m 0 min 0 min 0 W/m 19,3 km/h (3 Bft) 95,74 %
19.09.2023 04:32 14,9 C 14,4 C 11,1 C 87 % 1010,2 hPa 0,0 l/m 0 min 0 min 0 W/m 12,9 km/h (3 Bft) 93,62 %
19.09.2023 04:34 14,9 C 14,4 C 11,1 C 87 % 1010,2 hPa 0,0 l/m 0 min 0 min 0 W/m 6,4 km/h (2 Bft) 93,62 %
19.09.2023 04:36 14,9 C 13,9 C 11,1 C 87 % 1010,2 hPa 0,0 l/m 0 min 0 min 0 W/m 9,7 km/h (2 Bft) 95,74 %
19.09.2023 04:38 14,9 C 13,9 C 11,1 C 87 % 1010,2 hPa 0,0 l/m 0 min 0 min 0 W/m 16,1 km/h (3 Bft) 95,74 %
19.09.2023 04:40 14,9 C 13,9 C 11,1 C 87 % 1010,3 hPa 0,0 l/m 0 min 0 min 0 W/m 16,1 km/h (3 Bft) 97,78 %
19.09.2023 04:42 14,9 C 14,4 C 11,1 C 87 % 1010,3 hPa 0,0 l/m 0 min 0 min 0 W/m 19,3 km/h (3 Bft) 97,83 %
19.09.2023 04:44 14,9 C 13,9 C 11,1 C 87 % 1010,2 hPa 0,0 l/m 0 min 0 min 0 W/m 12,9 km/h (3 Bft) 97,87 %
19.09.2023 04:46 14,9 C 13,9 C 11,1 C 87 % 1010,3 hPa 0,0 l/m 0 min 0 min 0 W/m 12,9 km/h (3 Bft) 97,87 %
19.09.2023 04:48 14,9 C 13,9 C 11,1 C 87 % 1010,3 hPa 0,0 l/m 0 min 0 min 0 W/m 16,1 km/h (3 Bft) 95,74 %
19.09.2023 04:50 14,9 C 13,9 C 11,1 C 87 % 1010,2 hPa 0,0 l/m 0 min 0 min 0 W/m 9,7 km/h (2 Bft) 95,74 %
19.09.2023 04:52 14,8 C 13,9 C 11,1 C 87 % 1010,4 hPa 0,0 l/m 0 min 0 min 0 W/m 22,5 km/h (4 Bft) 97,87 %
19.09.2023 04:54 14,8 C 13,9 C 11,1 C 87 % 1010,3 hPa 0,0 l/m 0 min 0 min 0 W/m 12,9 km/h (3 Bft) 100,00 %
19.09.2023 04:56 14,8 C 13,9 C 11,1 C 87 % 1010,3 hPa 0,0 l/m 0 min 0 min 0 W/m 16,1 km/h (3 Bft) 98,08 %
19.09.2023 04:58 14,8 C 13,9 C 11,1 C 87 % 1010,3 hPa 0,0 l/m 0 min 0 min 0 W/m 9,7 km/h (2 Bft) 97,78 %
19.09.2023 05:00 14,8 C 13,9 C 11,1 C 87 % 1010,3 hPa 0,0 l/m 0 min 0 min 0 W/m 12,9 km/h (3 Bft) 100,00 %
19.09.2023 05:02 14,8 C 13,9 C 11,1 C 87 % 1010,5 hPa 0,0 l/m 0 min 0 min 0 W/m 12,9 km/h (3 Bft) 97,87 %
19.09.2023 05:04 14,8 C 13,9 C 11,1 C 87 % 1010,4 hPa 0,0 l/m 0 min 0 min 0 W/m 12,9 km/h (3 Bft) 97,92 %
19.09.2023 05:06 14,8 C 13,9 C 11,1 C 87 % 1010,4 hPa 0,0 l/m 0 min 0 min 0 W/m 16,1 km/h (3 Bft) 100,00 %
19.09.2023 05:08 14,8 C 13,9 C 11,1 C 87 % 1010,5 hPa 0,0 l/m 0 min 0 min 0 W/m 9,7 km/h (2 Bft) 95,74 %
19.09.2023 05:10 14,8 C 13,9 C 11,1 C 87 % 1010,5 hPa 0,0 l/m 0 min 0 min 0 W/m 12,9 km/h (3 Bft) 95,74 %
19.09.2023 05:12 14,8 C 13,9 C 11,1 C 87 % 1010,5 hPa 0,0 l/m 0 min 0 min 0 W/m 6,4 km/h (2 Bft) 100,00 %
19.09.2023 05:14 14,8 C 13,9 C 11,1 C 87 % 1010,4 hPa 0,0 l/m 0 min 0 min 0 W/m 16,1 km/h (3 Bft) 100,00 %
19.09.2023 05:16 14,8 C 13,9 C 11,1 C 87 % 1010,4 hPa 0,0 l/m 0 min 0 min 0 W/m 16,1 km/h (3 Bft) 100,00 %
19.09.2023 05:18 14,8 C 13,9 C 11,1 C 87 % 1010,4 hPa 0,0 l/m 0 min 0 min 0 W/m 16,1 km/h (3 Bft) 100,00 %
19.09.2023 05:20 14,7 C 13,9 C 10,6 C 87 % 1010,4 hPa 0,0 l/m 0 min 0 min 0 W/m 12,9 km/h (3 Bft) 97,83 %
19.09.2023 05:22 14,7 C 13,9 C 10,6 C 87 % 1010,4 hPa 0,0 l/m 0 min 0 min 0 W/m 12,9 km/h (3 Bft) 100,00 %
19.09.2023 05:24 14,7 C 13,9 C 10,6 C 87 % 1010,4 hPa 0,0 l/m 0 min 0 min 0 W/m 6,4 km/h (2 Bft) 100,00 %
19.09.2023 05:26 14,7 C 13,9 C 10,6 C 87 % 1010,4 hPa 0,0 l/m 0 min 0 min 0 W/m 12,9 km/h (3 Bft) 100,00 %
19.09.2023 05:28 14,7 C 13,9 C 10,6 C 87 % 1010,4 hPa 0,0 l/m 0 min 0 min 0 W/m 3,2 km/h (1 Bft) 100,00 %
19.09.2023 05:30 14,7 C 13,9 C 10,6 C 87 % 1010,4 hPa 0,0 l/m 0 min 0 min 0 W/m 12,9 km/h (3 Bft) 100,00 %
19.09.2023 05:32 14,7 C 13,9 C 10,6 C 87 % 1010,4 hPa 0,0 l/m 0 min 0 min 0 W/m 12,9 km/h (3 Bft) 100,00 %
19.09.2023 05:34 14,6 C 13,9 C 10,6 C 87 % 1010,5 hPa 0,0 l/m 0 min 0 min 0 W/m 16,1 km/h (3 Bft) 100,00 %
19.09.2023 05:36 14,6 C 13,9 C 10,6 C 87 % 1010,5 hPa 0,0 l/m 0 min 0 min 0 W/m 6,4 km/h (2 Bft) 100,00 %
19.09.2023 05:38 14,6 C 13,9 C 10,6 C 87 % 1010,4 hPa 0,0 l/m 0 min 0 min 0 W/m 12,9 km/h (3 Bft) 100,00 %
19.09.2023 05:40 14,6 C 13,9 C 10,6 C 87 % 1010,5 hPa 0,0 l/m 0 min 0 min 0 W/m 12,9 km/h (3 Bft) 95,74 %
19.09.2023 05:42 14,6 C 13,9 C 10,6 C 87 % 1010,5 hPa 0,0 l/m 0 min 0 min 0 W/m 16,1 km/h (3 Bft) 100,00 %
19.09.2023 05:44 14,6 C 13,9 C 10,6 C 87 % 1010,5 hPa 0,0 l/m 0 min 0 min 0 W/m 25,7 km/h (4 Bft) 100,00 %
19.09.2023 05:46 14,5 C 13,9 C 10,6 C 87 % 1010,5 hPa 0,0 l/m 0 min 0 min 0 W/m 19,3 km/h (3 Bft) 97,87 %
19.09.2023 05:48 14,5 C 13,9 C 10,6 C 87 % 1010,5 hPa 0,0 l/m 0 min 0 min 0 W/m 12,9 km/h (3 Bft) 97,87 %
19.09.2023 05:50 14,5 C 13,9 C 10,6 C 87 % 1010,4 hPa 0,0 l/m 0 min 0 min 0 W/m 16,1 km/h (3 Bft) 100,00 %
19.09.2023 05:52 14,5 C 13,9 C 10,6 C 87 % 1010,5 hPa 0,0 l/m 0 min 0 min 0 W/m 12,9 km/h (3 Bft) 100,00 %
19.09.2023 05:54 14,5 C 13,9 C 10,6 C 87 % 1010,5 hPa 0,0 l/m 0 min 0 min 0 W/m 12,9 km/h (3 Bft) 100,00 %
19.09.2023 05:56 14,5 C 13,9 C 10,6 C 87 % 1010,4 hPa 0,0 l/m 0 min 0 min 0 W/m 12,9 km/h (3 Bft) 97,87 %
19.09.2023 05:58 14,5 C 13,9 C 10,6 C 87 % 1010,5 hPa 0,0 l/m 0 min 0 min 0 W/m 16,1 km/h (3 Bft) 97,73 %
19.09.2023 06:00 14,5 C 13,9 C 10,6 C 88 % 1010,5 hPa 0,0 l/m 0 min 0 min 0 W/m 22,5 km/h (4 Bft) 95,74 %
19.09.2023 06:02 14,5 C 13,9 C 10,6 C 88 % 1010,4 hPa 0,0 l/m 0 min 0 min 0 W/m 16,1 km/h (3 Bft) 93,62 %
19.09.2023 06:04 14,5 C 13,9 C 10,6 C 88 % 1010,4 hPa 0,0 l/m 0 min 0 min 0 W/m 19,3 km/h (3 Bft) 96,00 %
19.09.2023 06:08 14,5 C 13,9 C 10,6 C 88 % 1010,4 hPa 0,0 l/m 0 min 0 min 0 W/m 16,1 km/h (3 Bft) 95,35 %
19.09.2023 06:10 14,5 C 13,9 C 10,6 C 88 % 1010,4 hPa 0,0 l/m 0 min 0 min 0 W/m 22,5 km/h (4 Bft) 93,62 %
19.09.2023 06:12 14,5 C 13,9 C 10,6 C 88 % 1010,4 hPa 0,0 l/m 0 min 0 min 0 W/m 19,3 km/h (3 Bft) 95,74 %
19.09.2023 06:15 14,5 C 13,9 C 10,6 C 88 % 1010,4 hPa 0,0 l/m 0 min 0 min 0 W/m 22,5 km/h (4 Bft) 98,25 %
19.09.2023 06:20 14,5 C 13,9 C 10,6 C 88 % 1010,4 hPa 0,0 l/m 0 min 0 min 0 W/m 12,9 km/h (3 Bft) 97,44 %
19.09.2023 06:22 14,5 C 13,9 C 10,6 C 88 % 1010,4 hPa 0,0 l/m 0 min 0 min 0 W/m 29,0 km/h (5 Bft) 93,75 %
19.09.2023 06:24 14,5 C 13,9 C 10,6 C 88 % 1010,5 hPa 0,0 l/m 0 min 0 min 0 W/m 16,1 km/h (3 Bft) 95,74 %
19.09.2023 06:30 14,5 C 13,9 C 10,6 C 88 % 1010,5 hPa 0,0 l/m 0 min 0 min 0 W/m 19,3 km/h (3 Bft) 96,25 %
19.09.2023 06:31 14,5 C 13,9 C 10,6 C 88 % 1010,6 hPa 0,0 l/m 0 min 0 min 0 W/m 16,1 km/h (3 Bft) 95,83 %
19.09.2023 06:34 14,5 C 13,9 C 10,6 C 88 % 1010,6 hPa 0,0 l/m 0 min 0 min 0 W/m 16,1 km/h (3 Bft) 98,31 %
19.09.2023 06:36 14,5 C 13,9 C 10,6 C 88 % 1010,5 hPa 0,0 l/m 0 min 0 min 0 W/m 12,9 km/h (3 Bft) 95,74 %
19.09.2023 06:38 14,5 C 13,9 C 10,6 C 88 % 1010,5 hPa 0,0 l/m 0 min 0 min 0 W/m 19,3 km/h (3 Bft) 91,49 %
19.09.2023 06:40 14,5 C 13,9 C 10,6 C 88 % 1010,4 hPa 0,0 l/m 0 min 0 min 0 W/m 16,1 km/h (3 Bft) 93,62 %
19.09.2023 06:42 14,5 C 13,9 C 10,6 C 88 % 1010,5 hPa 0,0 l/m 0 min 0 min 0 W/m 16,1 km/h (3 Bft) 93,62 %
19.09.2023 06:44 14,5 C 13,9 C 10,6 C 88 % 1010,4 hPa 0,0 l/m 0 min 0 min 0 W/m 19,3 km/h (3 Bft) 97,87 %
19.09.2023 06:46 14,5 C 13,9 C 10,6 C 88 % 1010,5 hPa 0,0 l/m 0 min 0 min 0 W/m 19,3 km/h (3 Bft) 97,92 %
19.09.2023 06:48 14,4 C 13,9 C 10,6 C 88 % 1010,4 hPa 0,0 l/m 0 min 0 min 0 W/m 29,0 km/h (5 Bft) 97,83 %
19.09.2023 06:50 14,5 C 13,9 C 10,6 C 88 % 1010,4 hPa 0,0 l/m 0 min 0 min 0 W/m 16,1 km/h (3 Bft) 95,74 %
19.09.2023 06:52 14,4 C 13,9 C 10,6 C 88 % 1010,5 hPa 0,0 l/m 0 min 0 min 0 W/m 16,1 km/h (3 Bft) 95,74 %
19.09.2023 06:54 14,5 C 13,9 C 10,6 C 88 % 1010,5 hPa 0,0 l/m 0 min 0 min 0 W/m 19,3 km/h (3 Bft) 97,92 %
19.09.2023 06:56 14,4 C 13,9 C 10,6 C 88 % 1010,5 hPa 0,0 l/m 0 min 0 min 0 W/m 12,9 km/h (3 Bft) 97,87 %
19.09.2023 06:58 14,4 C 13,9 C 10,6 C 88 % 1010,6 hPa 0,0 l/m 0 min 0 min 0 W/m 19,3 km/h (3 Bft) 93,62 %
19.09.2023 07:00 14,4 C 13,9 C 10,6 C 88 % 1010,6 hPa 0,0 l/m 0 min 0 min 0 W/m 22,5 km/h (4 Bft) 95,74 %
19.09.2023 07:02 14,4 C 13,9 C 10,6 C 87 % 1010,7 hPa 0,0 l/m 0 min 0 min 0 W/m 19,3 km/h (3 Bft) 100,00 %
19.09.2023 07:04 14,4 C 13,9 C 10,6 C 87 % 1010,7 hPa 0,0 l/m 0 min 0 min 0 W/m 12,9 km/h (3 Bft) 98,08 %
19.09.2023 07:08 14,4 C 13,9 C 10,6 C 87 % 1010,9 hPa 0,0 l/m 0 min 0 min 0 W/m 16,1 km/h (3 Bft) 95,88 %
19.09.2023 07:09 14,4 C 13,9 C 10,6 C 87 % 1010,9 hPa 0,0 l/m 0 min 0 min 0 W/m 16,1 km/h (3 Bft) 100,00 %
19.09.2023 07:10 14,4 C 13,9 C 10,6 C 87 % 1010,9 hPa 0,0 l/m 0 min 0 min 0 W/m 16,1 km/h (3 Bft) 83,33 %
19.09.2023 07:14 14,4 C 13,9 C 10,6 C 87 % 1010,9 hPa 0,0 l/m 0 min 0 min 0 W/m 16,1 km/h (3 Bft) 95,65 %
19.09.2023 07:16 14,4 C 13,9 C 10,6 C 87 % 1010,9 hPa 0,0 l/m 0 min 0 min 0 W/m 6,4 km/h (2 Bft) 95,83 %
19.09.2023 07:18 14,4 C 13,9 C 10,6 C 87 % 1011,0 hPa 0,0 l/m 0 min 0 min 0 W/m 16,1 km/h (3 Bft) 97,87 %
19.09.2023 07:20 14,4 C 13,9 C 10,6 C 87 % 1011,0 hPa 0,0 l/m 0 min 0 min 0 W/m 6,4 km/h (2 Bft) 97,87 %
19.09.2023 07:22 14,4 C 13,9 C 10,6 C 87 % 1011,0 hPa 0,0 l/m 0 min 0 min 0 W/m 16,1 km/h (3 Bft) 97,87 %
19.09.2023 07:24 14,4 C 13,9 C 10,6 C 87 % 1011,0 hPa 0,0 l/m 0 min 0 min 4 W/m 6,4 km/h (2 Bft) 97,87 %
19.09.2023 07:26 14,4 C 13,9 C 10,6 C 87 % 1011,0 hPa 0,0 l/m 0 min 0 min 5 W/m 16,1 km/h (3 Bft) 97,87 %
19.09.2023 07:28 14,4 C 13,9 C 10,6 C 87 % 1011,2 hPa 0,0 l/m 0 min 0 min 5 W/m 6,4 km/h (2 Bft) 97,83 %
19.09.2023 07:30 14,4 C 13,9 C 10,6 C 87 % 1011,2 hPa 0,0 l/m 0 min 0 min 5 W/m 12,9 km/h (3 Bft) 97,87 %
19.09.2023 07:32 14,4 C 13,9 C 10,6 C 87 % 1011,2 hPa 0,0 l/m 0 min 0 min 5 W/m 12,9 km/h (3 Bft) 97,87 %
19.09.2023 07:34 14,5 C 13,9 C 10,6 C 87 % 1011,3 hPa 0,0 l/m 0 min 0 min 7 W/m 19,3 km/h (3 Bft) 93,62 %
19.09.2023 07:36 14,5 C 13,9 C 10,6 C 87 % 1011,3 hPa 0,0 l/m 0 min 0 min 7 W/m 16,1 km/h (3 Bft) 95,74 %
19.09.2023 07:38 14,6 C 13,9 C 10,6 C 87 % 1011,4 hPa 0,0 l/m 0 min 0 min 9 W/m 19,3 km/h (3 Bft) 100,00 %
19.09.2023 07:40 14,6 C 13,9 C 10,6 C 87 % 1011,5 hPa 0,0 l/m 0 min 0 min 10 W/m 12,9 km/h (3 Bft) 100,00 %
19.09.2023 07:42 14,6 C 13,9 C 10,6 C 86 % 1011,4 hPa 0,0 l/m 0 min 0 min 11 W/m 16,1 km/h (3 Bft) 97,83 %
19.09.2023 07:44 14,6 C 13,9 C 11,1 C 86 % 1011,4 hPa 0,0 l/m 0 min 0 min 12 W/m 12,9 km/h (3 Bft) 100,00 %
19.09.2023 07:46 14,7 C 13,9 C 11,1 C 86 % 1011,4 hPa 0,0 l/m 0 min 0 min 15 W/m 9,7 km/h (2 Bft) 100,00 %
19.09.2023 07:48 14,7 C 13,9 C 11,1 C 86 % 1011,4 hPa 0,0 l/m 0 min 0 min 16 W/m 9,7 km/h (2 Bft) 100,00 %
19.09.2023 07:50 14,7 C 13,9 C 11,1 C 86 % 1011,4 hPa 0,0 l/m 0 min 0 min 17 W/m 9,7 km/h (2 Bft) 100,00 %
19.09.2023 07:52 14,7 C 13,9 C 11,1 C 86 % 1011,4 hPa 0,0 l/m 0 min 0 min 21 W/m 12,9 km/h (3 Bft) 97,87 %
19.09.2023 07:54 14,7 C 13,9 C 11,1 C 86 % 1011,5 hPa 0,0 l/m 0 min 0 min 21 W/m 12,9 km/h (3 Bft) 95,74 %
19.09.2023 07:56 14,7 C 14,4 C 11,1 C 86 % 1011,6 hPa 0,0 l/m 0 min 0 min 19 W/m 16,1 km/h (3 Bft) 97,83 %
19.09.2023 07:58 14,7 C 14,4 C 11,1 C 86 % 1011,6 hPa 0,0 l/m 0 min 0 min 18 W/m 16,1 km/h (3 Bft) 98,00 %
19.09.2023 08:00 14,8 C 14,4 C 11,1 C 86 % 1011,6 hPa 0,0 l/m 0 min 0 min 18 W/m 12,9 km/h (3 Bft) 97,87 %
19.09.2023 08:02 14,8 C 14,4 C 11,1 C 86 % 1011,6 hPa 0,0 l/m 0 min 0 min 19 W/m 22,5 km/h (4 Bft) 97,87 %
19.09.2023 08:04 14,8 C 14,4 C 11,1 C 86 % 1011,6 hPa 0,0 l/m 0 min 0 min 21 W/m 19,3 km/h (3 Bft) 98,08 %
19.09.2023 08:08 14,8 C 14,4 C 11,1 C 86 % 1011,6 hPa 0,0 l/m 0 min 0 min 30 W/m 19,3 km/h (3 Bft) 97,59 %
19.09.2023 08:09 14,8 C 14,4 C 11,1 C 86 % 1011,6 hPa 0,0 l/m 0 min 0 min 38 W/m 6,4 km/h (2 Bft) 100,00 %
19.09.2023 08:10 14,8 C 14,4 C 11,1 C 86 % 1011,6 hPa 0,0 l/m 0 min 0 min 36 W/m 16,1 km/h (3 Bft) 100,00 %
19.09.2023 08:14 14,8 C 14,4 C 11,1 C 86 % 1011,6 hPa 0,0 l/m 0 min 0 min 45 W/m 25,7 km/h (4 Bft) 97,87 %
19.09.2023 08:16 14,8 C 14,4 C 11,1 C 86 % 1011,5 hPa 0,0 l/m 0 min 0 min 46 W/m 16,1 km/h (3 Bft) 97,87 %
19.09.2023 08:18 14,8 C 14,4 C 11,1 C 86 % 1011,5 hPa 0,0 l/m 0 min 0 min 46 W/m 12,9 km/h (3 Bft) 97,87 %
19.09.2023 08:20 14,8 C 14,4 C 11,1 C 86 % 1011,6 hPa 0,0 l/m 0 min 0 min 47 W/m 19,3 km/h (3 Bft) 97,87 %
19.09.2023 08:22 14,8 C 14,4 C 11,1 C 86 % 1011,4 hPa 0,0 l/m 0 min 0 min 47 W/m 12,9 km/h (3 Bft) 93,62 %
19.09.2023 08:24 14,8 C 14,4 C 11,1 C 86 % 1011,5 hPa 0,0 l/m 0 min 0 min 48 W/m 19,3 km/h (3 Bft) 100,00 %
19.09.2023 08:26 14,8 C 14,4 C 11,1 C 86 % 1011,5 hPa 0,0 l/m 0 min 0 min 56 W/m 12,9 km/h (3 Bft) 100,00 %
19.09.2023 08:28 14,8 C 14,4 C 11,1 C 87 % 1011,5 hPa 0,0 l/m 0 min 0 min 60 W/m 16,1 km/h (3 Bft) 100,00 %
19.09.2023 08:30 14,8 C 14,4 C 11,1 C 87 % 1011,6 hPa 0,0 l/m 0 min 0 min 63 W/m 29,0 km/h (5 Bft) 100,00 %
19.09.2023 08:32 14,8 C 14,4 C 11,1 C 87 % 1011,5 hPa 0,0 l/m 0 min 0 min 66 W/m 22,5 km/h (4 Bft) 100,00 %
19.09.2023 08:34 14,8 C 14,4 C 11,1 C 87 % 1011,5 hPa 0,0 l/m 0 min 0 min 68 W/m 25,7 km/h (4 Bft) 100,00 %
19.09.2023 08:36 14,8 C 14,4 C 11,1 C 87 % 1011,4 hPa 0,0 l/m 0 min 0 min 69 W/m 12,9 km/h (3 Bft) 100,00 %
19.09.2023 08:38 14,8 C 14,4 C 11,1 C 87 % 1011,4 hPa 0,0 l/m 0 min 0 min 71 W/m 16,1 km/h (3 Bft) 100,00 %
19.09.2023 08:40 14,9 C 14,4 C 11,1 C 87 % 1011,5 hPa 0,0 l/m 0 min 0 min 74 W/m 12,9 km/h (3 Bft) 100,00 %
19.09.2023 08:42 14,9 C 14,4 C 11,1 C 87 % 1011,6 hPa 0,0 l/m 0 min 0 min 76 W/m 25,7 km/h (4 Bft) 100,00 %
19.09.2023 08:44 14,9 C 14,4 C 11,1 C 87 % 1011,4 hPa 0,0 l/m 0 min 0 min 78 W/m 16,1 km/h (3 Bft) 100,00 %
19.09.2023 08:46 14,9 C 14,4 C 11,1 C 87 % 1011,6 hPa 0,0 l/m 0 min 0 min 81 W/m 35,4 km/h (5 Bft) 97,87 %
19.09.2023 08:48 14,9 C 14,4 C 11,1 C 87 % 1011,5 hPa 0,0 l/m 0 min 0 min 84 W/m 12,9 km/h (3 Bft) 97,87 %
19.09.2023 08:50 14,9 C 14,4 C 11,1 C 87 % 1011,6 hPa 0,0 l/m 0 min 0 min 87 W/m 12,9 km/h (3 Bft) 100,00 %
19.09.2023 08:52 14,9 C 14,4 C 11,1 C 87 % 1011,6 hPa 0,0 l/m 0 min 0 min 90 W/m 19,3 km/h (3 Bft) 100,00 %
19.09.2023 08:54 14,9 C 14,4 C 11,1 C 87 % 1011,6 hPa 0,0 l/m 0 min 0 min 94 W/m 22,5 km/h (4 Bft) 100,00 %
19.09.2023 08:56 15,0 C 14,4 C 11,1 C 87 % 1011,6 hPa 0,0 l/m 0 min 0 min 96 W/m 25,7 km/h (4 Bft) 97,87 %
19.09.2023 08:58 15,0 C 14,4 C 11,1 C 86 % 1011,6 hPa 0,0 l/m 0 min 0 min 99 W/m 16,1 km/h (3 Bft) 97,87 %
19.09.2023 09:00 15,0 C 14,4 C 11,1 C 87 % 1011,5 hPa 0,0 l/m 0 min 0 min 102 W/m 19,3 km/h (3 Bft) 97,87 %
19.09.2023 09:02 15,1 C 15,0 C 11,1 C 87 % 1011,5 hPa 0,0 l/m 0 min 0 min 105 W/m 16,1 km/h (3 Bft) 95,74 %
19.09.2023 09:04 15,1 C 15,0 C 11,1 C 86 % 1011,6 hPa 0,0 l/m 0 min 0 min 108 W/m 32,2 km/h (5 Bft) 97,37 %
19.09.2023 09:08 15,1 C 15,0 C 11,1 C 87 % 1011,6 hPa 0,0 l/m 0 min 0 min 111 W/m 22,5 km/h (4 Bft) 97,92 %
19.09.2023 09:09 15,1 C 15,0 C 11,1 C 87 % 1011,6 hPa 0,0 l/m 0 min 0 min 116 W/m 12,9 km/h (3 Bft) 95,83 %
19.09.2023 09:10 15,1 C 15,0 C 11,1 C 87 % 1011,6 hPa 0,0 l/m 0 min 0 min 115 W/m 22,5 km/h (4 Bft) 100,00 %
19.09.2023 09:14 15,2 C 15,0 C 11,1 C 86 % 1011,6 hPa 0,0 l/m 0 min 0 min 122 W/m 25,7 km/h (4 Bft) 97,87 %
19.09.2023 09:16 15,2 C 15,0 C 11,7 C 86 % 1011,7 hPa 0,0 l/m 0 min 0 min 123 W/m 22,5 km/h (4 Bft) 95,74 %
19.09.2023 09:18 15,2 C 15,0 C 11,7 C 86 % 1011,7 hPa 0,0 l/m 0 min 0 min 125 W/m 6,4 km/h (2 Bft) 93,62 %
19.09.2023 09:20 15,3 C 15,0 C 11,7 C 86 % 1011,7 hPa 0,0 l/m 0 min 0 min 127 W/m 25,7 km/h (4 Bft) 95,74 %
19.09.2023 09:22 15,3 C 15,0 C 11,7 C 86 % 1011,8 hPa 0,0 l/m 0 min 0 min 128 W/m 19,3 km/h (3 Bft) 97,83 %
19.09.2023 09:24 15,3 C 15,0 C 11,7 C 86 % 1011,9 hPa 0,0 l/m 0 min 0 min 130 W/m 19,3 km/h (3 Bft) 97,87 %
19.09.2023 09:26 15,3 C 15,0 C 11,7 C 86 % 1011,9 hPa 0,0 l/m 0 min 0 min 132 W/m 29,0 km/h (5 Bft) 95,74 %
19.09.2023 09:28 15,3 C 15,0 C 11,7 C 86 % 1012,1 hPa 0,0 l/m 0 min 0 min 134 W/m 22,5 km/h (4 Bft) 97,87 %
19.09.2023 09:30 15,3 C 15,0 C 11,7 C 86 % 1011,9 hPa 0,0 l/m 0 min 0 min 135 W/m 16,1 km/h (3 Bft) 97,87 %
19.09.2023 09:32 15,4 C 15,0 C 11,7 C 86 % 1011,9 hPa 0,0 l/m 0 min 0 min 136 W/m 19,3 km/h (3 Bft) 97,87 %
19.09.2023 09:34 15,4 C 15,0 C 11,7 C 86 % 1011,9 hPa 0,0 l/m 0 min 0 min 137 W/m 16,1 km/h (3 Bft) 95,74 %
19.09.2023 09:36 15,4 C 15,0 C 11,7 C 86 % 1011,9 hPa 0,0 l/m 0 min 0 min 139 W/m 22,5 km/h (4 Bft) 93,48 %
19.09.2023 09:38 15,4 C 15,0 C 11,7 C 86 % 1011,9 hPa 0,0 l/m 0 min 0 min 139 W/m 16,1 km/h (3 Bft) 97,87 %
19.09.2023 09:40 15,5 C 15,0 C 11,7 C 86 % 1011,9 hPa 0,0 l/m 0 min 0 min 139 W/m 22,5 km/h (4 Bft) 97,87 %
19.09.2023 09:42 15,5 C 15,0 C 11,7 C 86 % 1012,0 hPa 0,0 l/m 0 min 0 min 138 W/m 29,0 km/h (5 Bft) 97,87 %
19.09.2023 09:44 15,5 C 15,6 C 11,7 C 86 % 1011,9 hPa 0,0 l/m 0 min 0 min 137 W/m 12,9 km/h (3 Bft) 97,87 %
19.09.2023 09:46 15,5 C 15,6 C 11,7 C 86 % 1011,9 hPa 0,0 l/m 0 min 0 min 137 W/m 19,3 km/h (3 Bft) 98,15 %
19.09.2023 09:48 15,6 C 15,6 C 11,7 C 86 % 1011,9 hPa 0,0 l/m 0 min 0 min 136 W/m 12,9 km/h (3 Bft) 95,74 %
19.09.2023 09:50 15,6 C 15,6 C 11,7 C 86 % 1011,8 hPa 0,0 l/m 0 min 0 min 139 W/m 22,5 km/h (4 Bft) 91,49 %
19.09.2023 09:52 15,6 C 15,6 C 11,7 C 86 % 1011,9 hPa 0,0 l/m 0 min 0 min 140 W/m 16,1 km/h (3 Bft) 95,74 %
19.09.2023 09:54 15,6 C 15,6 C 11,7 C 85 % 1011,9 hPa 0,0 l/m 0 min 0 min 148 W/m 19,3 km/h (3 Bft) 95,92 %
19.09.2023 09:56 15,6 C 15,6 C 11,7 C 85 % 1011,9 hPa 0,0 l/m 0 min 0 min 154 W/m 22,5 km/h (4 Bft) 95,74 %
19.09.2023 09:58 15,7 C 15,6 C 11,7 C 85 % 1011,9 hPa 0,0 l/m 0 min 0 min 156 W/m 16,1 km/h (3 Bft) 93,62 %
19.09.2023 10:00 15,7 C 15,6 C 11,7 C 85 % 1011,9 hPa 0,0 l/m 0 min 0 min 160 W/m 19,3 km/h (3 Bft) 91,49 %
19.09.2023 10:02 15,7 C 15,6 C 12,2 C 85 % 1011,9 hPa 0,0 l/m 0 min 0 min 165 W/m 22,5 km/h (4 Bft) 91,49 %
19.09.2023 10:04 15,8 C 15,6 C 12,2 C 85 % 1012,0 hPa 0,0 l/m 0 min 0 min 175 W/m 29,0 km/h (5 Bft) 95,56 %
19.09.2023 10:06 15,8 C 15,6 C 12,2 C 84 % 1012,0 hPa 0,0 l/m 0 min 0 min 182 W/m 25,7 km/h (4 Bft) 93,62 %
19.09.2023 10:08 15,8 C 16,1 C 12,2 C 84 % 1011,9 hPa 0,0 l/m 0 min 0 min 181 W/m 19,3 km/h (3 Bft) 95,74 %
19.09.2023 10:10 15,9 C 16,1 C 12,2 C 84 % 1011,9 hPa 0,0 l/m 0 min 0 min 173 W/m 16,1 km/h (3 Bft) 95,74 %
19.09.2023 10:12 16,0 C 16,1 C 12,2 C 84 % 1011,9 hPa 0,0 l/m 0 min 0 min 172 W/m 25,7 km/h (4 Bft) 93,62 %
19.09.2023 10:14 16,1 C 16,1 C 12,2 C 84 % 1011,9 hPa 0,0 l/m 0 min 0 min 169 W/m 19,3 km/h (3 Bft) 93,62 %
19.09.2023 10:16 16,1 C 16,1 C 12,2 C 84 % 1011,9 hPa 0,0 l/m 0 min 0 min 167 W/m 22,5 km/h (4 Bft) 95,65 %
19.09.2023 10:18 16,2 C 16,1 C 12,2 C 84 % 1012,0 hPa 0,0 l/m 0 min 0 min 169 W/m 9,7 km/h (2 Bft) 93,62 %
19.09.2023 10:20 16,2 C 16,7 C 12,8 C 84 % 1012,0 hPa 0,0 l/m 0 min 0 min 193 W/m 25,7 km/h (4 Bft) 95,74 %
19.09.2023 10:22 16,2 C 16,1 C 12,2 C 83 % 1012,2 hPa 0,0 l/m 0 min 0 min 187 W/m 32,2 km/h (5 Bft) 95,74 %
19.09.2023 10:24 16,2 C 16,1 C 12,2 C 83 % 1012,1 hPa 0,0 l/m 0 min 0 min 200 W/m 29,0 km/h (5 Bft) 97,87 %
19.09.2023 10:26 16,3 C 16,1 C 12,2 C 83 % 1012,1 hPa 0,0 l/m 0 min 0 min 177 W/m 38,6 km/h (5 Bft) 93,62 %
19.09.2023 10:28 16,3 C 16,1 C 12,8 C 83 % 1012,1 hPa 0,0 l/m 0 min 0 min 184 W/m 16,1 km/h (3 Bft) 97,87 %
19.09.2023 10:30 16,3 C 16,7 C 12,8 C 83 % 1012,2 hPa 0,0 l/m 0 min 0 min 184 W/m 16,1 km/h (3 Bft) 97,87 %
19.09.2023 10:32 16,4 C 16,7 C 12,8 C 83 % 1012,2 hPa 0,0 l/m 0 min 0 min 189 W/m 22,5 km/h (4 Bft) 97,83 %
19.09.2023 10:34 16,4 C 16,7 C 12,8 C 83 % 1012,1 hPa 0,0 l/m 0 min 0 min 205 W/m 22,5 km/h (4 Bft) 97,87 %
19.09.2023 10:36 16,4 C 16,7 C 12,8 C 83 % 1012,2 hPa 0,0 l/m 0 min 0 min 204 W/m 19,3 km/h (3 Bft) 95,74 %
19.09.2023 10:38 16,5 C 16,7 C 12,8 C 83 % 1012,3 hPa 0,0 l/m 0 min 0 min 208 W/m 19,3 km/h (3 Bft) 100,00 %
19.09.2023 10:40 16,5 C 16,7 C 12,8 C 83 % 1012,2 hPa 0,0 l/m 0 min 0 min 205 W/m 16,1 km/h (3 Bft) 100,00 %
19.09.2023 10:42 16,6 C 16,7 C 12,8 C 83 % 1012,1 hPa 0,0 l/m 0 min 0 min 203 W/m 25,7 km/h (4 Bft) 100,00 %
19.09.2023 10:44 16,6 C 16,7 C 12,8 C 83 % 1012,2 hPa 0,0 l/m 0 min 0 min 226 W/m 29,0 km/h (5 Bft) 100,00 %
19.09.2023 10:46 16,7 C 16,7 C 12,8 C 82 % 1012,3 hPa 0,0 l/m 0 min 0 min 204 W/m 22,5 km/h (4 Bft) 100,00 %
19.09.2023 10:48 16,7 C 16,7 C 12,8 C 82 % 1012,2 hPa 0,0 l/m 0 min 0 min 206 W/m 29,0 km/h (5 Bft) 100,00 %
19.09.2023 10:50 16,7 C 16,7 C 12,8 C 82 % 1012,2 hPa 0,0 l/m 0 min 0 min 208 W/m 12,9 km/h (3 Bft) 100,00 %
19.09.2023 10:52 16,7 C 16,7 C 12,8 C 82 % 1012,3 hPa 0,0 l/m 0 min 0 min 196 W/m 25,7 km/h (4 Bft) 100,00 %
19.09.2023 10:54 16,7 C 16,7 C 12,8 C 82 % 1012,3 hPa 0,0 l/m 0 min 0 min 199 W/m 29,0 km/h (5 Bft) 97,87 %
19.09.2023 10:56 16,8 C 16,7 C 12,8 C 82 % 1012,3 hPa 0,0 l/m 0 min 0 min 209 W/m 29,0 km/h (5 Bft) 100,00 %
19.09.2023 10:58 16,8 C 16,7 C 12,8 C 81 % 1012,2 hPa 0,0 l/m 0 min 0 min 220 W/m 16,1 km/h (3 Bft) 100,00 %
19.09.2023 11:00 16,8 C 16,7 C 12,8 C 81 % 1012,4 hPa 0,0 l/m 0 min 0 min 227 W/m 22,5 km/h (4 Bft) 100,00 %
19.09.2023 11:02 16,9 C 17,2 C 12,8 C 81 % 1012,3 hPa 0,0 l/m 0 min 0 min 223 W/m 19,3 km/h (3 Bft) 100,00 %
19.09.2023 11:04 16,9 C 17,2 C 13,3 C 82 % 1012,2 hPa 0,0 l/m 0 min 0 min 237 W/m 19,3 km/h (3 Bft) 100,00 %
19.09.2023 11:10 17,1 C 17,2 C 13,3 C 80 % 1012,1 hPa 0,0 l/m 0 min 0 min 240 W/m 32,2 km/h (5 Bft) 100,00 %
19.09.2023 11:12 17,1 C 17,2 C 13,3 C 80 % 1012,2 hPa 0,0 l/m 0 min 0 min 207 W/m 29,0 km/h (5 Bft) 97,87 %
19.09.2023 11:14 17,1 C 17,2 C 13,3 C 80 % 1012,3 hPa 0,0 l/m 0 min 0 min 211 W/m 25,7 km/h (4 Bft) 100,00 %
19.09.2023 11:16 17,1 C 17,2 C 13,3 C 80 % 1012,2 hPa 0,0 l/m 0 min 0 min 194 W/m 12,9 km/h (3 Bft) 100,00 %
19.09.2023 11:18 17,1 C 17,2 C 13,3 C 81 % 1012,2 hPa 0,0 l/m 0 min 0 min 193 W/m 16,1 km/h (3 Bft) 100,00 %
19.09.2023 11:20 17,1 C 17,2 C 13,3 C 81 % 1012,2 hPa 0,0 l/m 0 min 0 min 210 W/m 19,3 km/h (3 Bft) 100,00 %
19.09.2023 11:22 17,1 C 17,2 C 13,3 C 80 % 1012,3 hPa 0,0 l/m 0 min 0 min 195 W/m 32,2 km/h (5 Bft) 100,00 %
19.09.2023 11:24 17,1 C 17,2 C 13,3 C 80 % 1012,2 hPa 0,0 l/m 0 min 0 min 202 W/m 19,3 km/h (3 Bft) 100,00 %
19.09.2023 11:26 17,1 C 17,2 C 13,3 C 80 % 1012,1 hPa 0,0 l/m 0 min 0 min 191 W/m 25,7 km/h (4 Bft) 100,00 %
19.09.2023 11:28 17,1 C 16,7 C 13,3 C 79 % 1012,3 hPa 0,0 l/m 0 min 0 min 195 W/m 29,0 km/h (5 Bft) 100,00 %
19.09.2023 11:30 17,1 C 16,7 C 13,3 C 80 % 1012,2 hPa 0,0 l/m 0 min 0 min 225 W/m 29,0 km/h (5 Bft) 100,00 %
19.09.2023 11:32 17,1 C 16,7 C 13,3 C 79 % 1012,2 hPa 0,0 l/m 0 min 0 min 216 W/m 32,2 km/h (5 Bft) 100,00 %
19.09.2023 11:34 17,1 C 17,2 C 13,3 C 80 % 1012,3 hPa 0,0 l/m 0 min 0 min 217 W/m 35,4 km/h (5 Bft) 97,87 %
19.09.2023 11:36 17,1 C 17,2 C 13,3 C 79 % 1012,1 hPa 0,0 l/m 0 min 0 min 223 W/m 25,7 km/h (4 Bft) 95,74 %
19.09.2023 11:38 17,1 C 17,2 C 13,3 C 80 % 1012,2 hPa 0,0 l/m 0 min 0 min 221 W/m 29,0 km/h (5 Bft) 97,87 %
19.09.2023 11:40 17,1 C 17,2 C 13,3 C 80 % 1012,2 hPa 0,0 l/m 0 min 0 min 232 W/m 22,5 km/h (4 Bft) 97,87 %
19.09.2023 11:42 17,2 C 17,2 C 13,3 C 80 % 1012,2 hPa 0,0 l/m 0 min 0 min 193 W/m 19,3 km/h (3 Bft) 97,87 %
19.09.2023 11:44 17,2 C 17,2 C 13,3 C 80 % 1012,2 hPa 0,0 l/m 0 min 0 min 156 W/m 19,3 km/h (3 Bft) 97,87 %
19.09.2023 11:46 17,2 C 17,8 C 13,3 C 79 % 1012,1 hPa 0,0 l/m 0 min 0 min 174 W/m 25,7 km/h (4 Bft) 47,50 %
19.09.2023 11:48 17,2 C 17,8 C 13,9 C 79 % 1012,2 hPa 0,0 l/m 0 min 0 min 181 W/m 29,0 km/h (5 Bft) 95,74 %
19.09.2023 11:50 17,2 C 18,3 C 13,9 C 79 % 1012,1 hPa 0,0 l/m 0 min 0 min 267 W/m 9,7 km/h (2 Bft) 93,62 %
19.09.2023 11:52 17,3 C 18,9 C 14,4 C 79 % 1012,1 hPa 0,0 l/m 0 min 0 min 288 W/m 12,9 km/h (3 Bft) 91,49 %
19.09.2023 11:54 17,5 C 19,4 C 15,0 C 79 % 1012,1 hPa 0,0 l/m 0 min 0 min 288 W/m 22,5 km/h (4 Bft) 95,74 %
19.09.2023 11:56 17,6 C 20,0 C 15,6 C 79 % 1012,1 hPa 0,0 l/m 0 min 0 min 288 W/m 25,7 km/h (4 Bft) 95,74 %
19.09.2023 11:58 17,7 C 20,0 C 15,6 C 79 % 1012,2 hPa 0,0 l/m 2 min 0 min 491 W/m 16,1 km/h (3 Bft) 95,74 %
19.09.2023 12:00 17,9 C 20,6 C 16,1 C 79 % 1012,2 hPa 0,0 l/m 2 min 0 min 593 W/m 19,3 km/h (3 Bft) 97,83 %
19.09.2023 12:02 18,1 C 20,0 C 16,1 C 78 % 1012,1 hPa 0,0 l/m 2 min 0 min 550 W/m 25,7 km/h (4 Bft) 95,74 %
19.09.2023 12:04 18,1 C 19,4 C 15,6 C 77 % 1012,1 hPa 0,0 l/m 2 min 0 min 456 W/m 19,3 km/h (3 Bft) 95,65 %
19.09.2023 12:08 18,2 C 18,9 C 15,0 C 77 % 1012,1 hPa 0,0 l/m 4 min 0 min 318 W/m 29,0 km/h (5 Bft) 95,05 %
19.09.2023 12:10 18,2 C 18,9 C 15,0 C 76 % 1012,1 hPa 0,0 l/m 0 min 0 min 288 W/m 29,0 km/h (5 Bft) 95,74 %
19.09.2023 12:12 18,2 C 18,3 C 14,4 C 75 % 1012,2 hPa 0,0 l/m 0 min 0 min 250 W/m 29,0 km/h (5 Bft) 93,48 %
19.09.2023 12:16 18,1 C 18,3 C 14,4 C 75 % 1011,9 hPa 0,0 l/m 4 min 0 min 315 W/m 38,6 km/h (5 Bft) 95,74 %
19.09.2023 12:18 18,1 C 18,3 C 14,4 C 75 % 1012,0 hPa 0,0 l/m 2 min 0 min 307 W/m 29,0 km/h (5 Bft) 95,74 %
19.09.2023 12:20 18,1 C 18,3 C 14,4 C 75 % 1011,9 hPa 0,0 l/m 0 min 0 min 161 W/m 41,8 km/h (6 Bft) 97,87 %
19.09.2023 12:22 18,2 C 18,3 C 14,4 C 75 % 1012,0 hPa 0,0 l/m 0 min 0 min 197 W/m 19,3 km/h (3 Bft) 100,00 %
19.09.2023 12:24 18,2 C 18,3 C 14,4 C 76 % 1011,9 hPa 0,0 l/m 0 min 0 min 172 W/m 16,1 km/h (3 Bft) 100,00 %
19.09.2023 12:26 18,3 C 18,9 C 14,4 C 76 % 1011,8 hPa 0,0 l/m 0 min 0 min 192 W/m 12,9 km/h (3 Bft) 97,87 %
19.09.2023 12:28 18,4 C 18,9 C 14,4 C 76 % 1011,9 hPa 0,0 l/m 0 min 0 min 202 W/m 25,7 km/h (4 Bft) 100,00 %
19.09.2023 12:30 18,5 C 18,9 C 14,4 C 76 % 1011,9 hPa 0,0 l/m 0 min 0 min 204 W/m 22,5 km/h (4 Bft) 97,87 %
19.09.2023 12:32 18,6 C 18,9 C 14,4 C 74 % 1012,0 hPa 0,0 l/m 0 min 0 min 175 W/m 32,2 km/h (5 Bft) 97,87 %
19.09.2023 12:34 18,6 C 18,9 C 14,4 C 75 % 1011,9 hPa 0,0 l/m 0 min 0 min 161 W/m 22,5 km/h (4 Bft) 100,00 %
19.09.2023 12:36 18,6 C 18,3 C 14,4 C 74 % 1012,1 hPa 0,0 l/m 0 min 0 min 167 W/m 35,4 km/h (5 Bft) 100,00 %
19.09.2023 12:38 18,4 C 18,3 C 14,4 C 73 % 1011,8 hPa 0,0 l/m 0 min 0 min 151 W/m 29,0 km/h (5 Bft) 100,00 %
19.09.2023 12:40 18,4 C 18,3 C 14,4 C 74 % 1011,9 hPa 0,0 l/m 0 min 0 min 161 W/m 25,7 km/h (4 Bft) 100,00 %
19.09.2023 12:42 18,4 C 18,3 C 14,4 C 74 % 1012,1 hPa 0,0 l/m 0 min 0 min 193 W/m 22,5 km/h (4 Bft) 100,00 %
19.09.2023 12:44 18,4 C 18,3 C 14,4 C 74 % 1012,1 hPa 0,0 l/m 0 min 0 min 181 W/m 38,6 km/h (5 Bft) 97,83 %
19.09.2023 12:46 18,4 C 18,3 C 14,4 C 74 % 1012,0 hPa 0,0 l/m 0 min 0 min 191 W/m 35,4 km/h (5 Bft) 100,00 %
19.09.2023 12:48 18,5 C 18,9 C 14,4 C 74 % 1011,8 hPa 0,0 l/m 0 min 0 min 217 W/m 29,0 km/h (5 Bft) 100,00 %
19.09.2023 12:50 18,6 C 18,9 C 14,4 C 75 % 1011,8 hPa 0,0 l/m 0 min 0 min 204 W/m 19,3 km/h (3 Bft) 97,87 %
19.09.2023 12:52 18,7 C 18,9 C 14,4 C 74 % 1012,0 hPa 0,0 l/m 0 min 0 min 187 W/m 41,8 km/h (6 Bft) 100,00 %
19.09.2023 12:54 18,7 C 18,9 C 14,4 C 74 % 1011,8 hPa 0,0 l/m 0 min 0 min 163 W/m 25,7 km/h (4 Bft) 97,92 %
19.09.2023 12:56 18,7 C 18,9 C 14,4 C 73 % 1011,9 hPa 0,0 l/m 0 min 0 min 158 W/m 35,4 km/h (5 Bft) 100,00 %
19.09.2023 12:58 18,7 C 18,9 C 14,4 C 73 % 1011,9 hPa 0,0 l/m 0 min 0 min 177 W/m 29,0 km/h (5 Bft) 100,00 %
19.09.2023 13:00 18,7 C 18,3 C 14,4 C 72 % 1011,8 hPa 0,0 l/m 0 min 0 min 164 W/m 29,0 km/h (5 Bft) 97,22 %
19.09.2023 13:02 18,6 C 18,3 C 14,4 C 73 % 1011,9 hPa 0,0 l/m 0 min 0 min 176 W/m 22,5 km/h (4 Bft) 97,87 %
19.09.2023 13:04 18,7 C 18,3 C 14,4 C 73 % 1011,8 hPa 0,0 l/m 0 min 0 min 191 W/m 22,5 km/h (4 Bft) 100,00 %
19.09.2023 13:08 18,7 C 18,9 C 14,4 C 73 % 1012,0 hPa 0,0 l/m 0 min 0 min 202 W/m 29,0 km/h (5 Bft) 95,92 %
19.09.2023 13:12 18,7 C 18,9 C 14,4 C 72 % 1012,0 hPa 0,0 l/m 0 min 0 min 198 W/m 29,0 km/h (5 Bft) 97,22 %
19.09.2023 13:14 18,8 C 18,9 C 15,0 C 72 % 1011,8 hPa 0,0 l/m 0 min 0 min 186 W/m 41,8 km/h (6 Bft) 97,87 %
19.09.2023 13:16 18,8 C 18,9 C 15,0 C 72 % 1012,0 hPa 0,0 l/m 0 min 0 min 181 W/m 35,4 km/h (5 Bft) 97,87 %
19.09.2023 13:18 18,9 C 18,9 C 15,0 C 72 % 1011,9 hPa 0,0 l/m 0 min 0 min 177 W/m 41,8 km/h (6 Bft) 95,74 %
19.09.2023 13:20 18,9 C 18,9 C 15,0 C 71 % 1012,1 hPa 0,0 l/m 0 min 0 min 160 W/m 41,8 km/h (6 Bft) 97,83 %
19.09.2023 13:22 18,9 C 18,9 C 15,0 C 71 % 1012,1 hPa 0,0 l/m 0 min 0 min 161 W/m 29,0 km/h (5 Bft) 97,87 %
19.09.2023 13:24 19,0 C 18,9 C 15,0 C 71 % 1012,2 hPa 0,0 l/m 0 min 0 min 172 W/m 29,0 km/h (5 Bft) 97,87 %
19.09.2023 13:26 19,1 C 18,9 C 15,0 C 71 % 1012,1 hPa 0,0 l/m 0 min 0 min 208 W/m 25,7 km/h (4 Bft) 97,87 %
19.09.2023 13:28 19,1 C 18,9 C 15,0 C 71 % 1012,0 hPa 0,0 l/m 0 min 0 min 192 W/m 25,7 km/h (4 Bft) 97,87 %
19.09.2023 13:30 19,1 C 18,9 C 15,0 C 71 % 1012,0 hPa 0,0 l/m 0 min 0 min 165 W/m 35,4 km/h (5 Bft) 97,87 %
19.09.2023 13:32 19,2 C 18,9 C 15,0 C 70 % 1012,0 hPa 0,0 l/m 0 min 0 min 171 W/m 35,4 km/h (5 Bft) 97,87 %
19.09.2023 13:34 19,2 C 18,9 C 15,0 C 69 % 1012,0 hPa 0,0 l/m 0 min 0 min 197 W/m 35,4 km/h (5 Bft) 97,87 %
19.09.2023 13:36 19,2 C 18,9 C 15,0 C 69 % 1011,9 hPa 0,0 l/m 0 min 0 min 214 W/m 41,8 km/h (6 Bft) 97,83 %
19.09.2023 13:38 19,3 C 19,4 C 15,0 C 70 % 1011,8 hPa 0,0 l/m 0 min 0 min 249 W/m 19,3 km/h (3 Bft) 95,74 %
19.09.2023 13:40 19,3 C 18,9 C 15,0 C 69 % 1012,1 hPa 0,0 l/m 0 min 0 min 260 W/m 38,6 km/h (5 Bft) 95,74 %
19.09.2023 13:42 19,3 C 18,9 C 15,0 C 68 % 1011,9 hPa 0,0 l/m 0 min 0 min 283 W/m 48,3 km/h (6 Bft) 95,74 %
19.09.2023 13:44 19,3 C 18,9 C 15,0 C 69 % 1011,9 hPa 0,0 l/m 0 min 0 min 304 W/m 32,2 km/h (5 Bft) 97,87 %
19.09.2023 13:46 19,3 C 18,9 C 15,0 C 69 % 1011,8 hPa 0,0 l/m 2 min 0 min 376 W/m 45,1 km/h (6 Bft) 95,74 %
19.09.2023 13:48 19,3 C 18,9 C 15,0 C 69 % 1011,9 hPa 0,0 l/m 2 min 0 min 381 W/m 25,7 km/h (4 Bft) 93,62 %
19.09.2023 13:50 19,2 C 18,9 C 15,0 C 68 % 1011,9 hPa 0,0 l/m 0 min 0 min 222 W/m 48,3 km/h (6 Bft) 95,74 %
19.09.2023 13:52 19,2 C 18,9 C 15,0 C 69 % 1012,0 hPa 0,0 l/m 0 min 0 min 185 W/m 45,1 km/h (6 Bft) 93,48 %
19.09.2023 13:54 19,1 C 18,9 C 15,0 C 68 % 1011,8 hPa 0,0 l/m 0 min 0 min 185 W/m 16,1 km/h (3 Bft) 95,74 %
19.09.2023 13:56 19,1 C 18,9 C 15,0 C 68 % 1011,9 hPa 0,0 l/m 0 min 0 min 161 W/m 32,2 km/h (5 Bft) 95,83 %
19.09.2023 13:58 19,2 C 18,9 C 15,0 C 68 % 1011,8 hPa 0,0 l/m 0 min 0 min 240 W/m 29,0 km/h (5 Bft) 95,74 %
19.09.2023 14:00 19,2 C 19,4 C 15,0 C 69 % 1011,7 hPa 0,0 l/m 0 min 0 min 311 W/m 25,7 km/h (4 Bft) 95,74 %
19.09.2023 14:02 19,3 C 20,0 C 15,0 C 69 % 1011,6 hPa 0,0 l/m 2 min 0 min 603 W/m 22,5 km/h (4 Bft) 97,87 %
19.09.2023 14:04 19,4 C 20,0 C 15,0 C 69 % 1011,6 hPa 0,0 l/m 2 min 0 min 673 W/m 35,4 km/h (5 Bft) 97,78 %
19.09.2023 14:08 19,7 C 20,6 C 15,0 C 67 % 1011,6 hPa 0,0 l/m 4 min 0 min 695 W/m 51,5 km/h (7 Bft) 96,81 %
19.09.2023 14:12 19,8 C 21,1 C 15,0 C 66 % 1011,7 hPa 0,0 l/m 4 min 0 min 697 W/m 25,7 km/h (4 Bft) 91,89 %
19.09.2023 14:14 19,8 C 21,7 C 15,0 C 66 % 1011,6 hPa 0,0 l/m 2 min 0 min 690 W/m 32,2 km/h (5 Bft) 95,74 %
19.09.2023 14:16 19,8 C 22,2 C 15,0 C 68 % 1011,7 hPa 0,0 l/m 2 min 0 min 684 W/m 32,2 km/h (5 Bft) 95,74 %
19.09.2023 14:18 19,9 C 22,8 C 15,0 C 68 % 1011,5 hPa 0,0 l/m 2 min 0 min 701 W/m 29,0 km/h (5 Bft) 95,65 %
19.09.2023 14:20 20,0 C 22,8 C 15,6 C 67 % 1011,5 hPa 0,0 l/m 2 min 0 min 724 W/m 32,2 km/h (5 Bft) 95,74 %
19.09.2023 14:22 20,1 C 22,8 C 15,6 C 66 % 1011,5 hPa 0,0 l/m 2 min 0 min 710 W/m 32,2 km/h (5 Bft) 93,62 %
19.09.2023 14:24 20,1 C 22,8 C 15,6 C 66 % 1011,5 hPa 0,0 l/m 2 min 0 min 717 W/m 29,0 km/h (5 Bft) 97,87 %
19.09.2023 14:26 20,1 C 22,2 C 15,6 C 66 % 1011,6 hPa 0,0 l/m 2 min 0 min 732 W/m 41,8 km/h (6 Bft) 97,87 %
19.09.2023 14:28 20,1 C 22,2 C 15,0 C 66 % 1011,5 hPa 0,0 l/m 2 min 0 min 707 W/m 38,6 km/h (5 Bft) 93,62 %
19.09.2023 14:30 20,1 C 21,7 C 15,6 C 67 % 1011,3 hPa 0,0 l/m 2 min 0 min 690 W/m 29,0 km/h (5 Bft) 97,87 %
19.09.2023 14:32 20,2 C 21,1 C 15,6 C 67 % 1011,3 hPa 0,0 l/m 2 min 0 min 686 W/m 35,4 km/h (5 Bft) 97,87 %
19.09.2023 14:34 20,3 C 21,1 C 15,6 C 67 % 1011,3 hPa 0,0 l/m 2 min 0 min 600 W/m 29,0 km/h (5 Bft) 97,83 %
19.09.2023 14:36 20,3 C 20,6 C 15,6 C 66 % 1011,2 hPa 0,0 l/m 2 min 0 min 379 W/m 22,5 km/h (4 Bft) 97,87 %
19.09.2023 14:38 20,4 C 20,6 C 15,6 C 66 % 1011,2 hPa 0,0 l/m 2 min 0 min 687 W/m 41,8 km/h (6 Bft) 97,87 %
19.09.2023 14:40 20,4 C 20,6 C 15,6 C 65 % 1011,2 hPa 0,0 l/m 2 min 0 min 690 W/m 32,2 km/h (5 Bft) 97,87 %
19.09.2023 14:42 20,4 C 20,0 C 15,6 C 64 % 1011,3 hPa 0,0 l/m 2 min 0 min 692 W/m 38,6 km/h (5 Bft) 97,87 %
19.09.2023 14:44 20,5 C 20,6 C 15,6 C 65 % 1011,1 hPa 0,0 l/m 2 min 0 min 678 W/m 25,7 km/h (4 Bft) 95,74 %
19.09.2023 14:46 20,6 C 20,6 C 15,6 C 65 % 1011,3 hPa 0,0 l/m 2 min 0 min 688 W/m 29,0 km/h (5 Bft) 98,00 %
19.09.2023 14:48 20,6 C 20,0 C 15,6 C 65 % 1011,1 hPa 0,0 l/m 2 min 0 min 682 W/m 35,4 km/h (5 Bft) 97,83 %
19.09.2023 14:50 20,7 C 20,6 C 15,6 C 66 % 1011,1 hPa 0,0 l/m 2 min 0 min 664 W/m 25,7 km/h (4 Bft) 100,00 %
19.09.2023 14:52 20,7 C 20,6 C 15,6 C 65 % 1011,2 hPa 0,0 l/m 2 min 0 min 700 W/m 54,7 km/h (7 Bft) 100,00 %
19.09.2023 14:54 20,7 C 20,0 C 15,6 C 64 % 1011,4 hPa 0,0 l/m 2 min 0 min 646 W/m 48,3 km/h (6 Bft) 97,92 %
19.09.2023 14:56 20,5 C 20,0 C 15,6 C 64 % 1011,3 hPa 0,0 l/m 2 min 0 min 667 W/m 64,4 km/h (8 Bft) 100,00 %
19.09.2023 14:58 20,4 C 20,0 C 15,6 C 64 % 1010,9 hPa 0,0 l/m 2 min 0 min 658 W/m 41,8 km/h (6 Bft) 100,00 %
19.09.2023 15:00 20,3 C 20,0 C 15,6 C 66 % 1011,2 hPa 0,0 l/m 2 min 0 min 649 W/m 41,8 km/h (6 Bft) 100,00 %
19.09.2023 15:02 20,2 C 20,0 C 15,6 C 65 % 1011,3 hPa 0,0 l/m 2 min 0 min 649 W/m 45,1 km/h (6 Bft) 95,74 %
19.09.2023 15:04 20,3 C 20,0 C 15,6 C 66 % 1011,3 hPa 0,0 l/m 2 min 0 min 650 W/m 19,3 km/h (3 Bft) 100,00 %
19.09.2023 15:08 20,2 C 20,0 C 15,6 C 67 % 1011,3 hPa 0,0 l/m 4 min 0 min 361 W/m 29,0 km/h (5 Bft) 97,70 %
19.09.2023 15:09 20,2 C 20,0 C 15,6 C 66 % 1011,4 hPa 0,0 l/m 1 min 0 min 340 W/m 29,0 km/h (5 Bft) 100,00 %
19.09.2023 15:10 20,2 C 20,0 C 15,6 C 66 % 1011,4 hPa 0,0 l/m 1 min 0 min 313 W/m 38,6 km/h (5 Bft) 100,00 %
19.09.2023 15:14 20,3 C 20,0 C 16,1 C 66 % 1011,2 hPa 0,0 l/m 4 min 0 min 466 W/m 38,6 km/h (5 Bft) 100,00 %
19.09.2023 15:16 20,3 C 20,0 C 16,1 C 65 % 1011,4 hPa 0,0 l/m 0 min 0 min 283 W/m 64,4 km/h (8 Bft) 97,87 %
19.09.2023 15:18 20,3 C 20,0 C 16,1 C 66 % 1011,5 hPa 0,0 l/m 2 min 0 min 579 W/m 41,8 km/h (6 Bft) 97,87 %
19.09.2023 15:20 20,3 C 20,0 C 16,1 C 66 % 1011,3 hPa 0,0 l/m 2 min 0 min 304 W/m 35,4 km/h (5 Bft) 100,00 %
19.09.2023 15:22 20,3 C 20,0 C 16,1 C 67 % 1011,2 hPa 0,0 l/m 2 min 0 min 304 W/m 25,7 km/h (4 Bft) 97,87 %
19.09.2023 15:24 20,3 C 20,0 C 16,1 C 67 % 1011,4 hPa 0,0 l/m 2 min 0 min 304 W/m 38,6 km/h (5 Bft) 100,00 %
19.09.2023 15:26 20,3 C 20,0 C 16,1 C 67 % 1011,3 hPa 0,0 l/m 0 min 0 min 247 W/m 48,3 km/h (6 Bft) 100,00 %
19.09.2023 15:28 20,3 C 20,0 C 16,1 C 67 % 1011,3 hPa 0,0 l/m 0 min 0 min 246 W/m 32,2 km/h (5 Bft) 100,00 %
19.09.2023 15:30 20,2 C 20,0 C 16,1 C 68 % 1011,3 hPa 0,0 l/m 0 min 0 min 188 W/m 29,0 km/h (5 Bft) 100,00 %
19.09.2023 15:32 20,2 C 19,4 C 15,6 C 68 % 1011,3 hPa 0,0 l/m 0 min 0 min 150 W/m 29,0 km/h (5 Bft) 100,00 %
19.09.2023 15:34 20,1 C 19,4 C 15,6 C 68 % 1011,3 hPa 0,0 l/m 0 min 0 min 109 W/m 22,5 km/h (4 Bft) 100,00 %
19.09.2023 15:36 20,1 C 19,4 C 15,6 C 67 % 1011,3 hPa 0,0 l/m 0 min 0 min 118 W/m 22,5 km/h (4 Bft) 100,00 %
19.09.2023 15:38 19,9 C 18,9 C 15,6 C 67 % 1011,4 hPa 0,0 l/m 0 min 0 min 130 W/m 25,7 km/h (4 Bft) 97,87 %
19.09.2023 15:40 19,9 C 18,9 C 15,6 C 68 % 1011,3 hPa 0,0 l/m 0 min 0 min 111 W/m 25,7 km/h (4 Bft) 100,00 %
19.09.2023 15:42 19,8 C 18,9 C 15,6 C 68 % 1011,3 hPa 0,0 l/m 0 min 0 min 134 W/m 38,6 km/h (5 Bft) 100,00 %
19.09.2023 15:44 19,8 C 19,4 C 15,6 C 68 % 1011,3 hPa 0,0 l/m 0 min 0 min 135 W/m 25,7 km/h (4 Bft) 100,00 %
19.09.2023 15:46 19,8 C 18,9 C 15,6 C 68 % 1011,2 hPa 0,0 l/m 0 min 0 min 133 W/m 51,5 km/h (7 Bft) 100,00 %
19.09.2023 15:48 19,7 C 18,9 C 15,6 C 68 % 1011,4 hPa 0,0 l/m 0 min 0 min 122 W/m 35,4 km/h (5 Bft) 100,00 %
19.09.2023 15:50 19,7 C 18,9 C 15,6 C 68 % 1011,3 hPa 0,0 l/m 0 min 0 min 141 W/m 32,2 km/h (5 Bft) 100,00 %
19.09.2023 15:52 19,7 C 18,9 C 15,6 C 69 % 1011,5 hPa 0,0 l/m 0 min 0 min 158 W/m 32,2 km/h (5 Bft) 95,74 %
19.09.2023 15:54 19,7 C 18,9 C 15,6 C 68 % 1011,5 hPa 0,0 l/m 0 min 0 min 166 W/m 29,0 km/h (5 Bft) 100,00 %
19.09.2023 15:56 19,7 C 19,4 C 15,6 C 69 % 1011,4 hPa 0,0 l/m 0 min 0 min 155 W/m 22,5 km/h (4 Bft) 100,00 %
19.09.2023 15:58 19,7 C 19,4 C 15,6 C 69 % 1011,4 hPa 0,0 l/m 0 min 0 min 164 W/m 29,0 km/h (5 Bft) 100,00 %
19.09.2023 16:00 19,7 C 19,4 C 15,6 C 69 % 1011,3 hPa 0,0 l/m 0 min 0 min 166 W/m 25,7 km/h (4 Bft) 100,00 %
19.09.2023 16:02 19,7 C 19,4 C 15,6 C 69 % 1011,3 hPa 0,0 l/m 0 min 0 min 139 W/m 29,0 km/h (5 Bft) 95,74 %
19.09.2023 16:04 19,7 C 19,4 C 15,6 C 69 % 1011,4 hPa 0,0 l/m 0 min 0 min 137 W/m 29,0 km/h (5 Bft) 95,74 %
19.09.2023 16:07 19,7 C 18,9 C 15,6 C 69 % 1011,4 hPa 0,0 l/m 0 min 0 min 124 W/m 25,7 km/h (4 Bft) 97,22 %
19.09.2023 16:08 19,7 C 18,9 C 15,6 C 69 % 1011,4 hPa 0,0 l/m 0 min 0 min 134 W/m 29,0 km/h (5 Bft) 95,83 %
19.09.2023 16:10 19,7 C 18,9 C 15,6 C 69 % 1011,4 hPa 0,0 l/m 0 min 0 min 142 W/m 38,6 km/h (5 Bft) 100,00 %
19.09.2023 16:12 19,7 C 18,9 C 15,6 C 69 % 1011,4 hPa 0,0 l/m 0 min 0 min 151 W/m 22,5 km/h (4 Bft) 97,34 %
19.09.2023 16:14 19,7 C 19,4 C 15,6 C 69 % 1011,4 hPa 0,0 l/m 0 min 0 min 153 W/m 48,3 km/h (6 Bft) 95,71 %
19.09.2023 16:16 19,7 C 19,4 C 15,6 C 70 % 1011,3 hPa 0,0 l/m 0 min 0 min 158 W/m 19,3 km/h (3 Bft) 95,74 %
19.09.2023 16:18 19,7 C 19,4 C 15,6 C 70 % 1011,4 hPa 0,0 l/m 0 min 0 min 180 W/m 12,9 km/h (3 Bft) 97,87 %
19.09.2023 16:20 19,7 C 19,4 C 15,6 C 70 % 1011,3 hPa 0,0 l/m 0 min 0 min 168 W/m 16,1 km/h (3 Bft) 97,87 %
19.09.2023 16:22 19,8 C 19,4 C 15,6 C 70 % 1011,4 hPa 0,0 l/m 0 min 0 min 179 W/m 16,1 km/h (3 Bft) 97,83 %
19.09.2023 16:24 19,8 C 19,4 C 15,6 C 70 % 1011,4 hPa 0,0 l/m 0 min 0 min 186 W/m 16,1 km/h (3 Bft) 93,62 %
19.09.2023 16:26 19,8 C 19,4 C 15,6 C 70 % 1011,5 hPa 0,0 l/m 0 min 0 min 151 W/m 19,3 km/h (3 Bft) 93,62 %
19.09.2023 16:28 19,8 C 19,4 C 15,6 C 69 % 1011,3 hPa 0,0 l/m 0 min 0 min 147 W/m 35,4 km/h (5 Bft) 95,74 %
19.09.2023 16:30 19,8 C 19,4 C 15,6 C 69 % 1011,4 hPa 0,0 l/m 0 min 0 min 177 W/m 25,7 km/h (4 Bft) 95,74 %
19.09.2023 16:32 19,8 C 19,4 C 15,6 C 69 % 1011,3 hPa 0,0 l/m 0 min 0 min 156 W/m 41,8 km/h (6 Bft) 95,74 %
19.09.2023 16:34 19,8 C 19,4 C 15,6 C 69 % 1011,4 hPa 0,0 l/m 0 min 0 min 144 W/m 29,0 km/h (5 Bft) 97,87 %
19.09.2023 16:36 19,8 C 19,4 C 15,6 C 69 % 1011,4 hPa 0,0 l/m 0 min 0 min 147 W/m 38,6 km/h (5 Bft) 95,65 %
19.09.2023 16:38 19,8 C 19,4 C 15,6 C 69 % 1011,4 hPa 0,0 l/m 0 min 0 min 145 W/m 29,0 km/h (5 Bft) 95,74 %
19.09.2023 16:40 19,9 C 19,4 C 15,6 C 69 % 1011,4 hPa 0,0 l/m 0 min 0 min 160 W/m 32,2 km/h (5 Bft) 93,62 %
19.09.2023 16:42 19,9 C 20,0 C 15,6 C 70 % 1011,3 hPa 0,0 l/m 0 min 0 min 166 W/m 12,9 km/h (3 Bft) 93,62 %
19.09.2023 16:44 19,9 C 19,4 C 15,6 C 70 % 1011,4 hPa 0,0 l/m 0 min 0 min 146 W/m 22,5 km/h (4 Bft) 95,74 %
19.09.2023 16:46 19,9 C 19,4 C 15,6 C 69 % 1011,4 hPa 0,0 l/m 0 min 0 min 137 W/m 35,4 km/h (5 Bft) 93,62 %
19.09.2023 16:48 19,9 C 19,4 C 15,6 C 69 % 1011,3 hPa 0,0 l/m 0 min 0 min 132 W/m 22,5 km/h (4 Bft) 95,92 %
19.09.2023 16:50 19,9 C 19,4 C 15,6 C 68 % 1011,3 hPa 0,0 l/m 0 min 0 min 105 W/m 25,7 km/h (4 Bft) 95,74 %
19.09.2023 16:52 19,9 C 19,4 C 15,6 C 68 % 1011,4 hPa 0,0 l/m 0 min 0 min 86 W/m 35,4 km/h (5 Bft) 93,62 %
19.09.2023 16:54 19,8 C 19,4 C 15,6 C 68 % 1011,2 hPa 0,0 l/m 0 min 0 min 89 W/m 22,5 km/h (4 Bft) 95,74 %
19.09.2023 16:56 19,8 C 19,4 C 15,6 C 69 % 1011,2 hPa 0,0 l/m 0 min 0 min 91 W/m 19,3 km/h (3 Bft) 95,74 %
19.09.2023 16:58 19,8 C 18,9 C 15,6 C 68 % 1011,3 hPa 0,0 l/m 0 min 0 min 99 W/m 32,2 km/h (5 Bft) 93,62 %
19.09.2023 17:00 19,8 C 18,9 C 15,6 C 68 % 1011,2 hPa 0,0 l/m 0 min 0 min 110 W/m 29,0 km/h (5 Bft) 95,74 %
19.09.2023 17:02 19,8 C 19,4 C 15,6 C 68 % 1011,3 hPa 0,0 l/m 0 min 0 min 116 W/m 45,1 km/h (6 Bft) 93,62 %
19.09.2023 17:04 19,7 C 18,9 C 15,6 C 68 % 1011,4 hPa 0,0 l/m 0 min 0 min 116 W/m 38,6 km/h (5 Bft) 93,48 %
19.09.2023 17:06 19,7 C 18,9 C 15,6 C 68 % 1011,2 hPa 0,0 l/m 0 min 0 min 119 W/m 38,6 km/h (5 Bft) 95,74 %
19.09.2023 17:08 19,7 C 18,9 C 15,6 C 69 % 1011,2 hPa 0,0 l/m 0 min 0 min 117 W/m 29,0 km/h (5 Bft) 95,74 %
19.09.2023 17:10 19,7 C 19,4 C 15,6 C 69 % 1011,4 hPa 0,0 l/m 0 min 0 min 120 W/m 25,7 km/h (4 Bft) 95,74 %
19.09.2023 17:12 19,7 C 19,4 C 15,6 C 70 % 1011,2 hPa 0,0 l/m 0 min 0 min 125 W/m 29,0 km/h (5 Bft) 93,62 %
19.09.2023 17:14 19,7 C 18,9 C 15,6 C 69 % 1011,2 hPa 0,0 l/m 0 min 0 min 112 W/m 25,7 km/h (4 Bft) 97,87 %
19.09.2023 17:16 19,7 C 18,9 C 15,6 C 70 % 1011,2 hPa 0,0 l/m 0 min 0 min 96 W/m 25,7 km/h (4 Bft) 95,74 %
19.09.2023 17:18 19,7 C 18,9 C 15,6 C 70 % 1011,2 hPa 0,0 l/m 0 min 0 min 95 W/m 32,2 km/h (5 Bft) 95,65 %
19.09.2023 17:20 19,7 C 19,4 C 15,6 C 70 % 1011,2 hPa 0,0 l/m 0 min 0 min 107 W/m 16,1 km/h (3 Bft) 98,00 %
19.09.2023 17:22 19,7 C 19,4 C 15,6 C 69 % 1011,3 hPa 0,0 l/m 0 min 0 min 117 W/m 35,4 km/h (5 Bft) 100,00 %
19.09.2023 17:24 19,7 C 19,4 C 15,6 C 69 % 1011,2 hPa 0,0 l/m 0 min 0 min 133 W/m 25,7 km/h (4 Bft) 100,00 %
19.09.2023 17:26 19,7 C 19,4 C 15,6 C 69 % 1011,1 hPa 0,0 l/m 0 min 0 min 138 W/m 25,7 km/h (4 Bft) 97,87 %
19.09.2023 17:28 19,7 C 19,4 C 15,6 C 69 % 1011,2 hPa 0,0 l/m 0 min 0 min 134 W/m 35,4 km/h (5 Bft) 97,87 %
19.09.2023 17:30 19,8 C 19,4 C 15,6 C 69 % 1011,2 hPa 0,0 l/m 0 min 0 min 137 W/m 25,7 km/h (4 Bft) 100,00 %
19.09.2023 17:32 19,8 C 19,4 C 15,6 C 69 % 1011,1 hPa 0,0 l/m 0 min 0 min 141 W/m 29,0 km/h (5 Bft) 100,00 %
19.09.2023 17:34 19,7 C 19,4 C 15,6 C 69 % 1011,2 hPa 0,0 l/m 0 min 0 min 123 W/m 29,0 km/h (5 Bft) 97,87 %
19.09.2023 17:36 19,7 C 19,4 C 15,6 C 69 % 1011,1 hPa 0,0 l/m 0 min 0 min 126 W/m 29,0 km/h (5 Bft) 100,00 %
19.09.2023 17:38 19,7 C 19,4 C 15,6 C 70 % 1011,1 hPa 0,0 l/m 0 min 0 min 103 W/m 29,0 km/h (5 Bft) 100,00 %
19.09.2023 17:40 19,7 C 19,4 C 15,6 C 70 % 1011,2 hPa 0,0 l/m 0 min 0 min 85 W/m 38,6 km/h (5 Bft) 100,00 %
19.09.2023 17:42 19,7 C 18,9 C 15,6 C 70 % 1011,0 hPa 0,0 l/m 0 min 0 min 82 W/m 22,5 km/h (4 Bft) 100,00 %
19.09.2023 17:44 19,7 C 20,0 C 15,6 C 70 % 1011,1 hPa 0,0 l/m 0 min 0 min 90 W/m 29,0 km/h (5 Bft) 100,00 %
19.09.2023 17:46 19,8 C 20,0 C 15,6 C 70 % 1010,9 hPa 0,0 l/m 0 min 0 min 110 W/m 22,5 km/h (4 Bft) 97,83 %
19.09.2023 17:48 19,8 C 19,4 C 15,6 C 70 % 1010,9 hPa 0,0 l/m 0 min 0 min 90 W/m 29,0 km/h (5 Bft) 100,00 %
19.09.2023 17:50 19,8 C 20,0 C 15,6 C 70 % 1010,9 hPa 0,0 l/m 0 min 0 min 115 W/m 22,5 km/h (4 Bft) 100,00 %
19.09.2023 17:52 19,8 C 20,0 C 15,6 C 70 % 1010,9 hPa 0,0 l/m 0 min 0 min 120 W/m 22,5 km/h (4 Bft) 100,00 %
19.09.2023 17:54 19,8 C 20,0 C 15,0 C 70 % 1010,9 hPa 0,0 l/m 0 min 0 min 130 W/m 16,1 km/h (3 Bft) 100,00 %
19.09.2023 17:56 19,8 C 19,4 C 15,6 C 70 % 1010,9 hPa 0,0 l/m 2 min 0 min 150 W/m 29,0 km/h (5 Bft) 100,00 %
19.09.2023 17:58 19,8 C 20,0 C 15,6 C 70 % 1010,9 hPa 0,0 l/m 2 min 0 min 235 W/m 25,7 km/h (4 Bft) 100,00 %
19.09.2023 18:00 19,8 C 20,0 C 15,6 C 70 % 1010,9 hPa 0,0 l/m 2 min 0 min 225 W/m 32,2 km/h (5 Bft) 100,00 %
19.09.2023 18:02 19,8 C 20,0 C 15,6 C 70 % 1010,9 hPa 0,0 l/m 2 min 0 min 153 W/m 22,5 km/h (4 Bft) 97,87 %
19.09.2023 18:04 19,9 C 19,4 C 15,6 C 70 % 1010,9 hPa 0,0 l/m 2 min 0 min 132 W/m 45,1 km/h (6 Bft) 97,62 %
19.09.2023 18:07 19,9 C 19,4 C 15,6 C 70 % 1010,9 hPa 0,0 l/m 3 min 0 min 123 W/m 32,2 km/h (5 Bft) 97,47 %
19.09.2023 18:08 19,9 C 19,4 C 15,6 C 70 % 1010,9 hPa 0,0 l/m 1 min 0 min 138 W/m 12,9 km/h (3 Bft) 100,00 %
19.09.2023 18:10 19,9 C 19,4 C 15,6 C 70 % 1010,9 hPa 0,0 l/m 2 min 0 min 136 W/m 25,7 km/h (4 Bft) 97,14 %
19.09.2023 18:12 19,9 C 19,4 C 15,6 C 70 % 1010,8 hPa 0,0 l/m 2 min 0 min 123 W/m 19,3 km/h (3 Bft) 97,87 %
19.09.2023 18:16 19,9 C 20,0 C 15,6 C 70 % 1010,9 hPa 0,0 l/m 4 min 0 min 192 W/m 45,1 km/h (6 Bft) 96,77 %
19.09.2023 18:18 20,0 C 20,0 C 15,6 C 70 % 1010,8 hPa 0,0 l/m 2 min 0 min 201 W/m 38,6 km/h (5 Bft) 97,87 %
19.09.2023 18:20 20,0 C 20,0 C 16,1 C 69 % 1010,8 hPa 0,0 l/m 2 min 0 min 174 W/m 32,2 km/h (5 Bft) 97,87 %
19.09.2023 18:22 20,1 C 20,0 C 16,1 C 69 % 1011,0 hPa 0,0 l/m 2 min 0 min 154 W/m 32,2 km/h (5 Bft) 97,87 %
19.09.2023 18:24 20,1 C 20,0 C 15,6 C 69 % 1011,0 hPa 0,0 l/m 2 min 0 min 126 W/m 32,2 km/h (5 Bft) 95,83 %
19.09.2023 18:25 20,1 C 20,0 C 15,6 C 69 % 1010,9 hPa 0,0 l/m 1 min 0 min 122 W/m 32,2 km/h (5 Bft) 100,00 %
19.09.2023 18:30 19,9 C 19,4 C 15,6 C 69 % 1010,9 hPa 0,0 l/m 0 min 0 min 81 W/m 32,2 km/h (5 Bft) 100,00 %
19.09.2023 18:34 19,9 C 18,9 C 15,6 C 70 % 1010,8 hPa 0,0 l/m 0 min 0 min 77 W/m 32,2 km/h (5 Bft) 100,00 %
19.09.2023 18:36 19,8 C 19,4 C 15,6 C 70 % 1010,9 hPa 0,0 l/m 2 min 0 min 99 W/m 19,3 km/h (3 Bft) 100,00 %
19.09.2023 18:38 19,8 C 19,4 C 15,6 C 70 % 1011,0 hPa 0,0 l/m 2 min 0 min 95 W/m 25,7 km/h (4 Bft) 100,00 %
19.09.2023 18:40 19,8 C 19,4 C 15,6 C 70 % 1011,1 hPa 0,0 l/m 2 min 0 min 85 W/m 29,0 km/h (5 Bft) 97,83 %
19.09.2023 18:42 19,8 C 19,4 C 15,6 C 69 % 1011,1 hPa 0,0 l/m 2 min 0 min 81 W/m 38,6 km/h (5 Bft) 97,92 %
19.09.2023 18:44 19,8 C 19,4 C 15,6 C 69 % 1011,0 hPa 0,0 l/m 2 min 0 min 74 W/m 29,0 km/h (5 Bft) 100,00 %
19.09.2023 18:46 19,8 C 18,9 C 15,6 C 70 % 1011,1 hPa 0,0 l/m 0 min 0 min 64 W/m 25,7 km/h (4 Bft) 100,00 %
19.09.2023 18:48 19,8 C 18,9 C 15,0 C 70 % 1011,0 hPa 0,0 l/m 0 min 0 min 48 W/m 22,5 km/h (4 Bft) 100,00 %
19.09.2023 18:50 19,7 C 18,9 C 15,0 C 70 % 1011,0 hPa 0,0 l/m 0 min 0 min 46 W/m 25,7 km/h (4 Bft) 100,00 %
19.09.2023 18:52 19,7 C 18,9 C 15,0 C 70 % 1011,0 hPa 0,0 l/m 0 min 0 min 44 W/m 25,7 km/h (4 Bft) 97,87 %
19.09.2023 18:54 19,6 C 18,9 C 15,0 C 70 % 1011,0 hPa 0,0 l/m 0 min 0 min 40 W/m 38,6 km/h (5 Bft) 100,00 %
19.09.2023 18:56 19,6 C 18,9 C 15,0 C 70 % 1011,0 hPa 0,0 l/m 0 min 0 min 38 W/m 25,7 km/h (4 Bft) 100,00 %
19.09.2023 18:58 19,6 C 18,9 C 15,0 C 70 % 1010,9 hPa 0,0 l/m 0 min 0 min 29 W/m 25,7 km/h (4 Bft) 100,00 %
19.09.2023 19:00 19,5 C 18,9 C 15,0 C 70 % 1010,9 hPa 0,0 l/m 0 min 0 min 23 W/m 38,6 km/h (5 Bft) 97,87 %
19.09.2023 19:02 19,4 C 18,9 C 15,0 C 70 % 1010,9 hPa 0,0 l/m 0 min 0 min 19 W/m 25,7 km/h (4 Bft) 100,00 %
19.09.2023 19:04 19,4 C 18,3 C 15,0 C 70 % 1010,9 hPa 0,0 l/m 0 min 0 min 16 W/m 25,7 km/h (4 Bft) 100,00 %
19.09.2023 19:08 19,4 C 18,3 C 15,0 C 71 % 1010,9 hPa 0,0 l/m 0 min 0 min 12 W/m 32,2 km/h (5 Bft) 98,97 %
19.09.2023 19:09 19,4 C 18,3 C 15,0 C 71 % 1010,9 hPa 0,0 l/m 0 min 0 min 11 W/m 35,4 km/h (5 Bft) 100,00 %
19.09.2023 19:10 19,3 C 18,3 C 15,0 C 71 % 1010,9 hPa 0,0 l/m 0 min 0 min 11 W/m 35,4 km/h (5 Bft) 100,00 %
19.09.2023 19:14 19,3 C 18,3 C 15,0 C 71 % 1010,9 hPa 0,0 l/m 0 min 0 min 9 W/m 19,3 km/h (3 Bft) 97,83 %
19.09.2023 19:16 19,3 C 18,3 C 15,0 C 71 % 1010,9 hPa 0,0 l/m 0 min 0 min 8 W/m 29,0 km/h (5 Bft) 97,92 %
19.09.2023 19:18 19,3 C 18,3 C 15,0 C 71 % 1010,9 hPa 0,0 l/m 0 min 0 min 7 W/m 29,0 km/h (5 Bft) 95,74 %
19.09.2023 19:20 19,3 C 18,3 C 15,0 C 71 % 1010,9 hPa 0,0 l/m 0 min 0 min 7 W/m 22,5 km/h (4 Bft) 97,87 %
19.09.2023 19:22 19,3 C 18,3 C 15,0 C 71 % 1010,9 hPa 0,0 l/m 0 min 0 min 6 W/m 19,3 km/h (3 Bft) 97,87 %
19.09.2023 19:24 19,2 C 18,3 C 14,4 C 71 % 1010,9 hPa 0,0 l/m 0 min 0 min 5 W/m 29,0 km/h (5 Bft) 95,74 %
19.09.2023 19:26 19,2 C 18,3 C 14,4 C 71 % 1011,0 hPa 0,0 l/m 0 min 0 min 2 W/m 16,1 km/h (3 Bft) 95,74 %
19.09.2023 19:28 19,2 C 18,3 C 14,4 C 71 % 1011,0 hPa 0,0 l/m 0 min 0 min 0 W/m 19,3 km/h (3 Bft) 95,74 %
19.09.2023 19:30 19,2 C 18,3 C 14,4 C 71 % 1011,0 hPa 0,0 l/m 0 min 0 min 0 W/m 29,0 km/h (5 Bft) 97,87 %
19.09.2023 19:32 19,2 C 18,3 C 14,4 C 72 % 1010,9 hPa 0,0 l/m 0 min 0 min 0 W/m 19,3 km/h (3 Bft) 97,83 %
19.09.2023 19:34 19,2 C 18,3 C 14,4 C 72 % 1011,0 hPa 0,0 l/m 0 min 0 min 0 W/m 19,3 km/h (3 Bft) 95,74 %
19.09.2023 19:36 19,1 C 18,3 C 14,4 C 72 % 1010,9 hPa 0,0 l/m 0 min 0 min 0 W/m 25,7 km/h (4 Bft) 95,74 %
19.09.2023 19:38 19,1 C 18,3 C 14,4 C 72 % 1011,0 hPa 0,0 l/m 0 min 0 min 0 W/m 29,0 km/h (5 Bft) 95,74 %
19.09.2023 19:40 19,1 C 18,3 C 14,4 C 72 % 1010,9 hPa 0,0 l/m 0 min 0 min 0 W/m 19,3 km/h (3 Bft) 93,62 %
19.09.2023 19:42 19,1 C 18,3 C 14,4 C 72 % 1011,0 hPa 0,0 l/m 0 min 0 min 0 W/m 25,7 km/h (4 Bft) 93,62 %
19.09.2023 19:44 19,1 C 18,3 C 14,4 C 72 % 1011,0 hPa 0,0 l/m 0 min 0 min 0 W/m 29,0 km/h (5 Bft) 95,74 %
19.09.2023 19:46 19,0 C 18,3 C 14,4 C 72 % 1011,0 hPa 0,0 l/m 0 min 0 min 0 W/m 25,7 km/h (4 Bft) 95,74 %
19.09.2023 19:48 19,0 C 18,3 C 14,4 C 72 % 1011,1 hPa 0,0 l/m 0 min 0 min 0 W/m 22,5 km/h (4 Bft) 95,74 %
19.09.2023 19:50 19,0 C 18,3 C 14,4 C 71 % 1011,0 hPa 0,0 l/m 0 min 0 min 0 W/m 22,5 km/h (4 Bft) 95,74 %
19.09.2023 19:52 19,0 C 18,3 C 14,4 C 72 % 1011,0 hPa 0,0 l/m 0 min 0 min 0 W/m 29,0 km/h (5 Bft) 95,74 %
19.09.2023 19:54 19,0 C 18,3 C 14,4 C 72 % 1011,1 hPa 0,0 l/m 0 min 0 min 0 W/m 51,5 km/h (7 Bft) 95,74 %
19.09.2023 19:56 19,0 C 18,3 C 14,4 C 72 % 1011,0 hPa 0,0 l/m 0 min 0 min 0 W/m 22,5 km/h (4 Bft) 95,74 %
19.09.2023 19:58 19,0 C 18,3 C 14,4 C 71 % 1011,1 hPa 0,0 l/m 0 min 0 min 0 W/m 32,2 km/h (5 Bft) 91,84 %
19.09.2023 20:00 18,9 C 18,3 C 14,4 C 72 % 1011,2 hPa 0,0 l/m 0 min 0 min 0 W/m 22,5 km/h (4 Bft) 95,74 %
19.09.2023 20:02 18,9 C 18,3 C 14,4 C 72 % 1011,1 hPa 0,0 l/m 0 min 0 min 0 W/m 16,1 km/h (3 Bft) 93,62 %
19.09.2023 20:04 18,9 C 18,3 C 14,4 C 72 % 1011,0 hPa 0,0 l/m 0 min 0 min 0 W/m 25,7 km/h (4 Bft) 95,35 %
19.09.2023 20:10 18,9 C 18,3 C 14,4 C 72 % 1011,1 hPa 0,0 l/m 0 min 0 min 0 W/m 29,0 km/h (5 Bft) 92,81 %
19.09.2023 20:12 18,9 C 18,3 C 14,4 C 72 % 1011,1 hPa 0,0 l/m 0 min 0 min 0 W/m 25,7 km/h (4 Bft) 93,62 %
19.09.2023 20:14 18,9 C 17,8 C 14,4 C 72 % 1011,2 hPa 0,0 l/m 0 min 0 min 0 W/m 25,7 km/h (4 Bft) 95,65 %
19.09.2023 20:16 18,9 C 17,8 C 14,4 C 72 % 1011,1 hPa 0,0 l/m 0 min 0 min 0 W/m 25,7 km/h (4 Bft) 93,62 %
19.09.2023 20:18 18,9 C 17,8 C 14,4 C 72 % 1011,1 hPa 0,0 l/m 0 min 0 min 0 W/m 25,7 km/h (4 Bft) 95,74 %
19.09.2023 20:20 18,8 C 17,8 C 14,4 C 72 % 1011,2 hPa 0,0 l/m 0 min 0 min 0 W/m 25,7 km/h (4 Bft) 95,74 %
19.09.2023 20:22 18,8 C 17,8 C 14,4 C 72 % 1011,1 hPa 0,0 l/m 0 min 0 min 0 W/m 25,7 km/h (4 Bft) 95,74 %
19.09.2023 20:24 18,8 C 17,8 C 14,4 C 72 % 1011,1 hPa 0,0 l/m 0 min 0 min 0 W/m 16,1 km/h (3 Bft) 97,87 %
19.09.2023 20:26 18,8 C 17,8 C 14,4 C 73 % 1011,1 hPa 0,0 l/m 0 min 0 min 0 W/m 29,0 km/h (5 Bft) 95,74 %
19.09.2023 20:28 18,8 C 17,8 C 14,4 C 72 % 1011,2 hPa 0,0 l/m 0 min 0 min 0 W/m 12,9 km/h (3 Bft) 97,87 %
19.09.2023 20:30 18,8 C 17,8 C 14,4 C 73 % 1011,1 hPa 0,0 l/m 0 min 0 min 0 W/m 22,5 km/h (4 Bft) 95,74 %
19.09.2023 20:32 18,8 C 17,8 C 14,4 C 73 % 1011,2 hPa 0,0 l/m 0 min 0 min 0 W/m 25,7 km/h (4 Bft) 97,87 %
19.09.2023 20:34 18,8 C 17,8 C 14,4 C 73 % 1011,1 hPa 0,0 l/m 0 min 0 min 0 W/m 29,0 km/h (5 Bft) 100,00 %
19.09.2023 20:36 18,7 C 17,8 C 14,4 C 72 % 1011,1 hPa 0,0 l/m 0 min 0 min 0 W/m 25,7 km/h (4 Bft) 97,83 %
19.09.2023 20:38 18,7 C 17,8 C 14,4 C 73 % 1011,1 hPa 0,0 l/m 0 min 0 min 0 W/m 35,4 km/h (5 Bft) 100,00 %
19.09.2023 20:40 18,7 C 17,8 C 14,4 C 72 % 1011,2 hPa 0,0 l/m 0 min 0 min 0 W/m 29,0 km/h (5 Bft) 97,83 %
19.09.2023 20:42 18,7 C 17,8 C 14,4 C 73 % 1011,1 hPa 0,0 l/m 0 min 0 min 0 W/m 25,7 km/h (4 Bft) 97,87 %
19.09.2023 20:44 18,7 C 17,8 C 14,4 C 73 % 1011,1 hPa 0,0 l/m 0 min 0 min 0 W/m 19,3 km/h (3 Bft) 100,00 %
19.09.2023 20:46 18,7 C 17,8 C 14,4 C 73 % 1011,1 hPa 0,0 l/m 0 min 0 min 0 W/m 22,5 km/h (4 Bft) 100,00 %
19.09.2023 20:48 18,7 C 17,8 C 14,4 C 72 % 1011,1 hPa 0,0 l/m 0 min 0 min 0 W/m 22,5 km/h (4 Bft) 97,87 %
19.09.2023 20:50 18,7 C 17,8 C 14,4 C 72 % 1011,1 hPa 0,0 l/m 0 min 0 min 0 W/m 29,0 km/h (5 Bft) 97,87 %
19.09.2023 20:52 18,7 C 17,8 C 14,4 C 72 % 1011,1 hPa 0,0 l/m 0 min 0 min 0 W/m 29,0 km/h (5 Bft) 95,74 %
19.09.2023 20:54 18,7 C 17,8 C 14,4 C 72 % 1011,1 hPa 0,0 l/m 0 min 0 min 0 W/m 22,5 km/h (4 Bft) 97,87 %
19.09.2023 20:56 18,7 C 17,8 C 14,4 C 72 % 1011,0 hPa 0,0 l/m 0 min 0 min 0 W/m 25,7 km/h (4 Bft) 100,00 %
19.09.2023 20:58 18,7 C 17,8 C 14,4 C 72 % 1011,1 hPa 0,0 l/m 0 min 0 min 0 W/m 35,4 km/h (5 Bft) 100,00 %
19.09.2023 21:00 18,7 C 17,8 C 14,4 C 72 % 1011,1 hPa 0,0 l/m 0 min 0 min 0 W/m 25,7 km/h (4 Bft) 97,87 %
19.09.2023 21:02 18,7 C 17,8 C 14,4 C 72 % 1011,1 hPa 0,0 l/m 0 min 0 min 0 W/m 22,5 km/h (4 Bft) 100,00 %
19.09.2023 21:04 18,7 C 17,8 C 14,4 C 72 % 1011,0 hPa 0,0 l/m 0 min 0 min 0 W/m 25,7 km/h (4 Bft) 100,00 %
19.09.2023 21:06 18,6 C 17,8 C 14,4 C 72 % 1011,2 hPa 0,0 l/m 0 min 0 min 0 W/m 29,0 km/h (5 Bft) 93,62 %
19.09.2023 21:08 18,6 C 17,8 C 13,9 C 72 % 1011,1 hPa 0,0 l/m 0 min 0 min 0 W/m 25,7 km/h (4 Bft) 100,00 %
19.09.2023 21:10 18,6 C 17,8 C 13,9 C 72 % 1011,0 hPa 0,0 l/m 0 min 0 min 0 W/m 22,5 km/h (4 Bft) 97,87 %
19.09.2023 21:12 18,6 C 17,8 C 13,9 C 72 % 1011,1 hPa 0,0 l/m 0 min 0 min 0 W/m 16,1 km/h (3 Bft) 97,87 %
19.09.2023 21:14 18,6 C 17,8 C 13,9 C 73 % 1011,0 hPa 0,0 l/m 0 min 0 min 0 W/m 48,3 km/h (6 Bft) 100,00 %
19.09.2023 21:16 18,6 C 17,8 C 13,9 C 73 % 1011,1 hPa 0,0 l/m 0 min 0 min 0 W/m 19,3 km/h (3 Bft) 95,74 %
19.09.2023 21:18 18,6 C 17,8 C 13,9 C 73 % 1011,1 hPa 0,0 l/m 0 min 0 min 0 W/m 32,2 km/h (5 Bft) 95,74 %
19.09.2023 21:20 18,6 C 17,8 C 13,9 C 73 % 1011,1 hPa 0,0 l/m 0 min 0 min 0 W/m 25,7 km/h (4 Bft) 100,00 %
19.09.2023 21:22 18,6 C 17,8 C 13,9 C 73 % 1011,0 hPa 0,0 l/m 0 min 0 min 0 W/m 22,5 km/h (4 Bft) 100,00 %
19.09.2023 21:24 18,6 C 17,8 C 13,9 C 73 % 1010,9 hPa 0,0 l/m 0 min 0 min 0 W/m 29,0 km/h (5 Bft) 97,87 %
19.09.2023 21:26 18,6 C 17,8 C 13,9 C 73 % 1010,9 hPa 0,0 l/m 0 min 0 min 0 W/m 22,5 km/h (4 Bft) 100,00 %
19.09.2023 21:28 18,6 C 17,8 C 13,9 C 73 % 1011,0 hPa 0,0 l/m 0 min 0 min 0 W/m 22,5 km/h (4 Bft) 100,00 %
19.09.2023 21:30 18,6 C 17,8 C 13,9 C 73 % 1011,0 hPa 0,0 l/m 0 min 0 min 0 W/m 22,5 km/h (4 Bft) 97,87 %
19.09.2023 21:32 18,6 C 17,8 C 13,9 C 73 % 1011,0 hPa 0,0 l/m 0 min 0 min 0 W/m 32,2 km/h (5 Bft) 97,87 %
19.09.2023 21:34 18,5 C 17,8 C 13,9 C 73 % 1010,9 hPa 0,0 l/m 0 min 0 min 0 W/m 19,3 km/h (3 Bft) 97,87 %
19.09.2023 21:36 18,6 C 17,8 C 13,9 C 73 % 1011,1 hPa 0,0 l/m 0 min 0 min 0 W/m 35,4 km/h (5 Bft) 97,83 %
19.09.2023 21:38 18,6 C 17,8 C 13,9 C 73 % 1010,9 hPa 0,0 l/m 0 min 0 min 0 W/m 25,7 km/h (4 Bft) 100,00 %
19.09.2023 21:40 18,6 C 17,8 C 13,9 C 73 % 1011,0 hPa 0,0 l/m 0 min 0 min 0 W/m 29,0 km/h (5 Bft) 100,00 %
19.09.2023 21:42 18,6 C 17,8 C 13,9 C 73 % 1011,1 hPa 0,0 l/m 0 min 0 min 0 W/m 22,5 km/h (4 Bft) 97,87 %
19.09.2023 21:44 18,6 C 17,8 C 13,9 C 73 % 1011,2 hPa 0,0 l/m 0 min 0 min 0 W/m 19,3 km/h (3 Bft) 100,00 %
19.09.2023 21:46 18,5 C 17,8 C 13,9 C 73 % 1011,1 hPa 0,0 l/m 0 min 0 min 0 W/m 16,1 km/h (3 Bft) 100,00 %
19.09.2023 21:48 18,5 C 17,8 C 13,9 C 74 % 1011,1 hPa 0,0 l/m 0 min 0 min 0 W/m 25,7 km/h (4 Bft) 95,74 %
19.09.2023 21:50 18,5 C 17,8 C 13,9 C 73 % 1011,1 hPa 0,0 l/m 0 min 0 min 0 W/m 25,7 km/h (4 Bft) 100,00 %
19.09.2023 21:52 18,5 C 17,8 C 13,9 C 73 % 1011,2 hPa 0,0 l/m 0 min 0 min 0 W/m 22,5 km/h (4 Bft) 100,00 %
19.09.2023 21:54 18,5 C 17,8 C 13,9 C 73 % 1011,2 hPa 0,0 l/m 0 min 0 min 0 W/m 32,2 km/h (5 Bft) 95,74 %
19.09.2023 21:56 18,5 C 17,8 C 13,9 C 73 % 1011,2 hPa 0,0 l/m 0 min 0 min 0 W/m 25,7 km/h (4 Bft) 96,00 %
19.09.2023 21:58 18,5 C 17,8 C 13,9 C 73 % 1011,3 hPa 0,0 l/m 0 min 0 min 0 W/m 22,5 km/h (4 Bft) 100,00 %
19.09.2023 22:00 18,5 C 17,8 C 13,9 C 74 % 1011,2 hPa 0,0 l/m 0 min 0 min 0 W/m 16,1 km/h (3 Bft) 91,49 %
19.09.2023 22:02 18,5 C 17,8 C 13,9 C 74 % 1011,3 hPa 0,0 l/m 0 min 0 min 0 W/m 22,5 km/h (4 Bft) 93,62 %
19.09.2023 22:04 18,5 C 17,8 C 13,9 C 74 % 1011,3 hPa 0,0 l/m 0 min 0 min 0 W/m 25,7 km/h (4 Bft) 96,08 %
19.09.2023 22:06 18,5 C 17,8 C 13,9 C 74 % 1011,4 hPa 0,0 l/m 0 min 0 min 0 W/m 22,5 km/h (4 Bft) 94,29 %
19.09.2023 22:08 18,5 C 17,8 C 13,9 C 74 % 1011,2 hPa 0,0 l/m 0 min 0 min 0 W/m 19,3 km/h (3 Bft) 93,62 %
19.09.2023 22:10 18,5 C 17,8 C 13,9 C 74 % 1011,2 hPa 0,0 l/m 0 min 0 min 0 W/m 19,3 km/h (3 Bft) 95,74 %
19.09.2023 22:12 18,5 C 17,8 C 13,9 C 74 % 1011,2 hPa 0,0 l/m 0 min 0 min 0 W/m 19,3 km/h (3 Bft) 91,49 %
19.09.2023 22:14 18,4 C 17,8 C 13,9 C 74 % 1011,2 hPa 0,0 l/m 0 min 0 min 0 W/m 32,2 km/h (5 Bft) 89,36 %
19.09.2023 22:16 18,5 C 17,8 C 13,9 C 74 % 1011,2 hPa 0,0 l/m 0 min 0 min 0 W/m 22,5 km/h (4 Bft) 95,74 %
19.09.2023 22:18 18,4 C 17,8 C 13,9 C 74 % 1011,1 hPa 0,0 l/m 0 min 0 min 0 W/m 16,1 km/h (3 Bft) 93,62 %
19.09.2023 22:20 18,4 C 17,8 C 13,9 C 74 % 1011,1 hPa 0,0 l/m 0 min 0 min 0 W/m 16,1 km/h (3 Bft) 95,74 %
19.09.2023 22:22 18,4 C 17,8 C 13,9 C 74 % 1011,1 hPa 0,0 l/m 0 min 0 min 0 W/m 19,3 km/h (3 Bft) 97,87 %
19.09.2023 22:24 18,4 C 17,8 C 13,9 C 74 % 1011,2 hPa 0,0 l/m 0 min 0 min 0 W/m 16,1 km/h (3 Bft) 91,49 %
19.09.2023 22:26 18,4 C 17,8 C 13,9 C 74 % 1011,2 hPa 0,0 l/m 0 min 0 min 0 W/m 19,3 km/h (3 Bft) 95,74 %
19.09.2023 22:28 18,4 C 17,8 C 13,9 C 74 % 1011,2 hPa 0,0 l/m 0 min 0 min 0 W/m 12,9 km/h (3 Bft) 97,83 %
19.09.2023 22:30 18,4 C 17,2 C 13,9 C 74 % 1011,2 hPa 0,0 l/m 0 min 0 min 0 W/m 22,5 km/h (4 Bft) 95,74 %
19.09.2023 22:32 18,4 C 17,8 C 13,9 C 74 % 1011,2 hPa 0,0 l/m 0 min 0 min 0 W/m 19,3 km/h (3 Bft) 95,74 %
19.09.2023 22:34 18,4 C 17,2 C 13,9 C 75 % 1011,2 hPa 0,0 l/m 0 min 0 min 0 W/m 12,9 km/h (3 Bft) 93,62 %
19.09.2023 22:36 18,4 C 17,2 C 13,9 C 75 % 1011,0 hPa 0,0 l/m 0 min 0 min 0 W/m 16,1 km/h (3 Bft) 95,74 %
19.09.2023 22:38 18,4 C 17,2 C 13,9 C 75 % 1011,0 hPa 0,0 l/m 0 min 0 min 0 W/m 16,1 km/h (3 Bft) 93,62 %
19.09.2023 22:40 18,3 C 17,2 C 13,9 C 75 % 1011,1 hPa 0,0 l/m 0 min 0 min 0 W/m 22,5 km/h (4 Bft) 97,87 %
19.09.2023 22:42 18,3 C 17,2 C 13,9 C 75 % 1011,1 hPa 0,0 l/m 0 min 0 min 0 W/m 19,3 km/h (3 Bft) 95,74 %
19.09.2023 22:44 18,3 C 17,2 C 13,9 C 75 % 1011,2 hPa 0,0 l/m 0 min 0 min 0 W/m 19,3 km/h (3 Bft) 95,74 %
19.09.2023 22:46 18,3 C 17,2 C 13,9 C 75 % 1011,1 hPa 0,0 l/m 0 min 0 min 0 W/m 22,5 km/h (4 Bft) 95,65 %
19.09.2023 22:48 18,3 C 17,2 C 13,9 C 75 % 1011,0 hPa 0,0 l/m 0 min 0 min 0 W/m 19,3 km/h (3 Bft) 97,87 %
19.09.2023 22:50 18,3 C 17,2 C 13,9 C 75 % 1011,0 hPa 0,0 l/m 0 min 0 min 0 W/m 29,0 km/h (5 Bft) 95,74 %
19.09.2023 22:52 18,3 C 17,2 C 13,9 C 75 % 1011,0 hPa 0,0 l/m 0 min 0 min 0 W/m 19,3 km/h (3 Bft) 97,87 %
19.09.2023 22:54 18,3 C 17,2 C 13,9 C 75 % 1011,0 hPa 0,0 l/m 0 min 0 min 0 W/m 19,3 km/h (3 Bft) 97,87 %
19.09.2023 22:56 18,3 C 17,2 C 13,9 C 75 % 1011,0 hPa 0,0 l/m 0 min 0 min 0 W/m 19,3 km/h (3 Bft) 95,74 %
19.09.2023 22:58 18,3 C 17,2 C 13,9 C 75 % 1011,0 hPa 0,0 l/m 0 min 0 min 0 W/m 29,0 km/h (5 Bft) 92,68 %
19.09.2023 23:00 18,3 C 17,2 C 13,9 C 75 % 1011,0 hPa 0,0 l/m 0 min 0 min 0 W/m 16,1 km/h (3 Bft) 97,87 %
19.09.2023 23:02 18,3 C 17,2 C 13,9 C 75 % 1011,0 hPa 0,0 l/m 0 min 0 min 0 W/m 29,0 km/h (5 Bft) 97,87 %
19.09.2023 23:04 18,3 C 17,2 C 13,9 C 75 % 1011,1 hPa 0,0 l/m 0 min 0 min 0 W/m 25,7 km/h (4 Bft) 96,23 %
19.09.2023 23:06 18,3 C 17,2 C 13,9 C 75 % 1011,0 hPa 0,0 l/m 0 min 0 min 0 W/m 19,3 km/h (3 Bft) 97,87 %
19.09.2023 23:08 18,3 C 17,2 C 13,9 C 76 % 1011,0 hPa 0,0 l/m 0 min 0 min 0 W/m 25,7 km/h (4 Bft) 97,83 %
19.09.2023 23:10 18,2 C 17,2 C 13,9 C 76 % 1010,9 hPa 0,0 l/m 0 min 0 min 0 W/m 25,7 km/h (4 Bft) 95,83 %
19.09.2023 23:12 18,2 C 17,2 C 13,9 C 76 % 1011,0 hPa 0,0 l/m 0 min 0 min 0 W/m 12,9 km/h (3 Bft) 97,83 %
19.09.2023 23:14 18,2 C 17,2 C 13,9 C 76 % 1011,0 hPa 0,0 l/m 0 min 0 min 0 W/m 19,3 km/h (3 Bft) 95,74 %
19.09.2023 23:16 18,2 C 17,2 C 13,9 C 76 % 1011,0 hPa 0,0 l/m 0 min 0 min 0 W/m 22,5 km/h (4 Bft) 97,87 %
19.09.2023 23:18 18,2 C 17,2 C 13,9 C 76 % 1010,9 hPa 0,0 l/m 0 min 0 min 0 W/m 19,3 km/h (3 Bft) 97,87 %
19.09.2023 23:20 18,2 C 17,2 C 13,9 C 76 % 1010,9 hPa 0,0 l/m 0 min 0 min 0 W/m 16,1 km/h (3 Bft) 100,00 %
19.09.2023 23:22 18,2 C 17,2 C 13,9 C 76 % 1011,1 hPa 0,0 l/m 0 min 0 min 0 W/m 19,3 km/h (3 Bft) 97,87 %
19.09.2023 23:24 18,2 C 17,2 C 13,9 C 76 % 1010,9 hPa 0,0 l/m 0 min 0 min 0 W/m 19,3 km/h (3 Bft) 100,00 %
19.09.2023 23:26 18,2 C 17,2 C 13,3 C 76 % 1011,0 hPa 0,0 l/m 0 min 0 min 0 W/m 25,7 km/h (4 Bft) 100,00 %
19.09.2023 23:28 18,2 C 17,2 C 13,3 C 76 % 1011,0 hPa 0,0 l/m 0 min 0 min 0 W/m 16,1 km/h (3 Bft) 100,00 %
19.09.2023 23:30 18,1 C 17,2 C 13,3 C 76 % 1011,0 hPa 0,0 l/m 0 min 0 min 0 W/m 22,5 km/h (4 Bft) 100,00 %
19.09.2023 23:32 18,1 C 17,2 C 13,3 C 76 % 1011,0 hPa 0,0 l/m 0 min 0 min 0 W/m 22,5 km/h (4 Bft) 100,00 %
19.09.2023 23:34 18,1 C 17,2 C 13,3 C 76 % 1010,9 hPa 0,0 l/m 0 min 0 min 0 W/m 12,9 km/h (3 Bft) 100,00 %
19.09.2023 23:36 18,1 C 17,2 C 13,3 C 76 % 1010,8 hPa 0,0 l/m 0 min 0 min 0 W/m 16,1 km/h (3 Bft) 97,87 %
19.09.2023 23:38 18,1 C 17,2 C 13,3 C 76 % 1010,9 hPa 0,0 l/m 0 min 0 min 0 W/m 12,9 km/h (3 Bft) 100,00 %
19.09.2023 23:40 18,1 C 17,2 C 13,3 C 77 % 1010,8 hPa 0,0 l/m 0 min 0 min 0 W/m 16,1 km/h (3 Bft) 100,00 %
19.09.2023 23:42 18,0 C 17,2 C 13,3 C 77 % 1010,9 hPa 0,0 l/m 0 min 0 min 0 W/m 19,3 km/h (3 Bft) 100,00 %
19.09.2023 23:44 18,0 C 17,2 C 13,3 C 77 % 1010,9 hPa 0,0 l/m 0 min 0 min 0 W/m 22,5 km/h (4 Bft) 100,00 %
19.09.2023 23:46 18,0 C 17,2 C 13,3 C 77 % 1010,9 hPa 0,0 l/m 0 min 0 min 0 W/m 16,1 km/h (3 Bft) 100,00 %
19.09.2023 23:48 18,0 C 16,7 C 13,3 C 77 % 1010,8 hPa 0,0 l/m 0 min 0 min 0 W/m 12,9 km/h (3 Bft) 97,87 %
19.09.2023 23:50 17,9 C 16,7 C 13,3 C 77 % 1010,8 hPa 0,0 l/m 0 min 0 min 0 W/m 12,9 km/h (3 Bft) 97,87 %
19.09.2023 23:52 17,9 C 16,7 C 13,3 C 77 % 1010,8 hPa 0,0 l/m 0 min 0 min 0 W/m 16,1 km/h (3 Bft) 97,83 %
19.09.2023 23:54 17,9 C 16,7 C 13,3 C 77 % 1010,9 hPa 0,0 l/m 0 min 0 min 0 W/m 29,0 km/h (5 Bft) 97,87 %
19.09.2023 23:56 17,9 C 16,7 C 13,3 C 77 % 1010,8 hPa 0,0 l/m 0 min 0 min 0 W/m 16,1 km/h (3 Bft) 97,96 %
19.09.2023 23:58 17,9 C 16,7 C 13,3 C 78 % 1010,8 hPa 0,0 l/m 0 min 0 min 0 W/m 16,1 km/h (3 Bft) 97,87 %
_ Min-Zeit 06:48 04:36 05:20 14:42 00:00 - - - - 00:58 00:02
Minimum _ 14,4 C 13,9 C 10,6 C 64 % 1007,8 hPa - - - - 3,2 km/h (1 Bft) 11,11 %
_ Max-Zeit 14:50 14:18 12:00 00:00 11:00 00:00 12:08 00:00 14:26 14:56 00:58
Maximum _ 20,7 C 22,8 C 16,1 C 93 % 1012,4 hPa 0,0 l/m 4 min 0 min 732 W/m 64,4 km/h
S-SW (8 Bft)
100,00 %
Durchschnitt _ 17,3 C 16,8 C 13,2 C 79 % 1010,9 hPa #0,0 l/m #2:25 h #0 min. 198 W/m 22,4 km/h (4 Bft) 97,24 %
© 2023 W. Hausmann